Time,TemperatureF,DewpointF,PressureIn,WindDirection,WindDirectionDegrees,WindSpeedMPH,WindSpeedGustMPH,Humidity,HourlyPrecipIn,Conditions,Clouds,dailyrainin,SolarRadiationWatts/m^2,SoftwareType,DateUTC
2013-02-02 00:00:00,21.5,9.4,30.18,NE,34,0.0,0.0,59,0.00,,---,0.00,0.00,VWS V14.01,2013-02-02 05:00:00,
2013-02-02 00:01:00,21.5,9.8,30.18,NE,34,0.0,0.0,60,0.00,,---,0.00,0.00,VWS V14.01,2013-02-02 05:01:00,
2013-02-02 00:05:00,21.5,9.8,30.18,NE,34,0.0,0.0,60,0.00,,---,0.00,0.00,VWS V14.01,2013-02-02 05:05:00,
2013-02-02 00:06:00,21.5,9.8,30.18,NE,36,0.0,0.0,60,0.00,,---,0.00,0.00,VWS V14.01,2013-02-02 05:06:00,
2013-02-02 00:10:00,21.4,10.1,30.19,NE,36,0.0,0.0,61,0.00,,---,0.00,0.00,VWS V14.01,2013-02-02 05:10:00,
2013-02-02 00:11:00,21.3,10.0,30.19,NE,36,0.0,0.0,61,0.00,,---,0.00,0.00,VWS V14.01,2013-02-02 05:11:00,
2013-02-02 00:15:00,21.2,9.5,30.19,WSW,245,2.0,2.0,60,0.00,,---,0.00,0.00,VWS V14.01,2013-02-02 05:15:00,
2013-02-02 00:16:00,21.2,9.5,30.19,SW,224,0.0,2.0,60,0.00,,---,0.00,0.00,VWS V14.01,2013-02-02 05:16:00,
2013-02-02 00:20:00,21.1,9.4,30.19,SW,225,0.0,2.0,60,0.00,,---,0.00,0.00,VWS V14.01,2013-02-02 05:20:00,
2013-02-02 00:21:00,21.1,9.4,30.19,SW,225,0.0,2.0,60,0.00,,---,0.00,0.00,VWS V14.01,2013-02-02 05:21:00,
2013-02-02 00:25:00,21.1,9.8,30.19,SW,225,0.0,1.0,61,0.00,,---,0.00,0.00,VWS V14.01,2013-02-02 05:25:00,
2013-02-02 00:26:00,21.1,9.8,30.19,SW,225,0.0,2.0,61,0.00,,---,0.00,0.00,VWS V14.01,2013-02-02 05:26:00,
2013-02-02 00:30:00,21.1,10.5,30.19,SW,225,0.0,2.0,63,0.00,,---,0.00,0.00,VWS V14.01,2013-02-02 05:30:00,
2013-02-02 00:31:00,21.1,10.5,30.19,SW,225,0.0,2.0,63,0.00,,---,0.00,0.00,VWS V14.01,2013-02-02 05:31:00,
2013-02-02 00:35:00,21.0,10.8,30.19,SW,225,1.0,1.0,64,0.00,,---,0.00,0.00,VWS V14.01,2013-02-02 05:35:00,
2013-02-02 00:36:00,21.0,10.4,30.19,SW,236,0.0,1.0,63,0.00,,---,0.00,0.00,VWS V14.01,2013-02-02 05:36:00,
2013-02-02 00:40:00,21.0,10.4,30.19,WNW,285,0.0,2.0,63,0.00,,---,0.00,0.00,VWS V14.01,2013-02-02 05:40:00,
2013-02-02 00:41:00,21.0,10.4,30.19,WSW,248,0.0,2.0,63,0.00,,---,0.00,0.00,VWS V14.01,2013-02-02 05:41:00,
2013-02-02 00:42:00,20.9,10.3,30.19,WSW,249,0.0,1.0,63,0.00,,---,0.00,0.00,VWS V14.01,2013-02-02 05:42:00,
2013-02-02 00:45:00,20.9,10.3,30.19,WSW,247,0.0,1.0,63,0.00,,---,0.00,0.00,VWS V14.01,2013-02-02 05:45:00,
2013-02-02 00:46:00,20.9,10.3,30.19,WSW,247,0.0,1.0,63,0.00,,---,0.00,0.00,VWS V14.01,2013-02-02 05:46:00,
2013-02-02 00:47:00,20.9,10.3,30.19,WSW,240,0.0,2.0,63,0.00,,---,0.00,0.00,VWS V14.01,2013-02-02 05:47:00,
2013-02-02 00:50:00,20.9,10.3,30.19,WSW,240,1.0,2.0,63,0.00,,---,0.00,0.00,VWS V14.01,2013-02-02 05:50:00,
2013-02-02 00:51:00,20.9,10.3,30.19,WSW,240,0.0,2.0,63,0.00,,---,0.00,0.00,VWS V14.01,2013-02-02 05:51:00,
2013-02-02 00:52:00,20.9,10.3,30.19,WSW,240,0.0,0.0,63,0.00,,---,0.00,0.00,VWS V14.01,2013-02-02 05:52:00,
2013-02-02 00:55:00,20.9,9.9,30.19,WNW,295,0.0,2.0,62,0.00,,---,0.00,0.00,VWS V14.01,2013-02-02 05:55:00,
2013-02-02 00:56:00,20.8,9.9,30.19,WNW,295,0.0,2.0,62,0.00,,---,0.00,0.00,VWS V14.01,2013-02-02 05:56:00,
2013-02-02 00:57:00,20.8,9.9,30.19,WNW,295,0.0,2.0,62,0.00,,---,0.00,0.00,VWS V14.01,2013-02-02 05:57:00,
2013-02-02 01:01:00,20.8,9.9,30.19,WNW,286,0.0,2.0,62,0.00,,---,0.00,0.00,VWS V14.01,2013-02-02 06:01:00,
2013-02-02 01:02:00,20.8,9.9,30.19,WNW,286,0.0,0.0,62,0.00,,---,0.00,0.00,VWS V14.01,2013-02-02 06:02:00,
2013-02-02 01:06:00,20.8,9.5,30.19,SW,230,1.0,3.0,61,0.00,,---,0.00,0.00,VWS V14.01,2013-02-02 06:06:00,
2013-02-02 01:07:00,20.8,9.9,30.19,SW,230,0.0,3.0,62,0.00,,---,0.00,0.00,VWS V14.01,2013-02-02 06:07:00,
2013-02-02 01:11:00,20.8,9.9,30.19,SW,230,0.0,3.0,62,0.00,,---,0.00,0.00,VWS V14.01,2013-02-02 06:11:00,
2013-02-02 01:12:00,20.8,9.9,30.19,NW,311,0.0,1.0,62,0.00,,---,0.00,0.00,VWS V14.01,2013-02-02 06:12:00,
2013-02-02 01:16:00,20.7,9.4,30.19,WSW,247,0.0,2.0,61,0.00,,---,0.00,0.00,VWS V14.01,2013-02-02 06:16:00,
2013-02-02 01:17:00,20.7,9.8,30.19,WSW,246,0.0,2.0,62,0.00,,---,0.00,0.00,VWS V14.01,2013-02-02 06:17:00,
2013-02-02 01:18:00,20.7,9.4,30.19,WSW,246,1.0,2.0,61,0.00,,---,0.00,0.00,VWS V14.01,2013-02-02 06:18:00,
2013-02-02 01:21:00,20.7,9.8,30.19,WSW,244,0.0,2.0,62,0.00,,---,0.00,0.00,VWS V14.01,2013-02-02 06:21:00,
2013-02-02 01:22:00,20.7,9.8,30.19,WSW,244,0.0,1.0,62,0.00,,---,0.00,0.00,VWS V14.01,2013-02-02 06:22:00,
2013-02-02 01:23:00,20.7,9.4,30.19,WSW,240,0.0,2.0,61,0.00,,---,0.00,0.00,VWS V14.01,2013-02-02 06:23:00,
2013-02-02 01:26:00,20.7,9.8,30.19,NNW,327,1.0,2.0,62,0.00,,---,0.00,0.00,VWS V14.01,2013-02-02 06:26:00,
2013-02-02 01:27:00,20.7,9.8,30.19,NNW,331,0.0,2.0,62,0.00,,---,0.00,0.00,VWS V14.01,2013-02-02 06:27:00,
2013-02-02 01:28:00,20.7,9.8,30.20,NW,314,0.0,2.0,62,0.00,,---,0.00,0.00,VWS V14.01,2013-02-02 06:28:00,
2013-02-02 01:31:00,20.6,9.3,30.20,WSW,248,1.0,3.0,61,0.00,,---,0.00,0.00,VWS V14.01,2013-02-02 06:31:00,
2013-02-02 01:32:00,20.7,9.4,30.20,WSW,248,0.0,1.0,61,0.00,,---,0.00,0.00,VWS V14.01,2013-02-02 06:32:00,
2013-02-02 01:33:00,20.7,9.4,30.20,WSW,248,0.0,1.0,61,0.00,,---,0.00,0.00,VWS V14.01,2013-02-02 06:33:00,
2013-02-02 01:36:00,20.6,9.3,30.20,SW,232,0.0,2.0,61,0.00,,---,0.00,0.00,VWS V14.01,2013-02-02 06:36:00,
2013-02-02 01:37:00,20.7,9.4,30.20,SW,233,0.0,2.0,61,0.00,,---,0.00,0.00,VWS V14.01,2013-02-02 06:37:00,
2013-02-02 01:38:00,20.7,9.4,30.20,WSW,245,0.0,2.0,61,0.00,,---,0.00,0.00,VWS V14.01,2013-02-02 06:38:00,
2013-02-02 01:41:00,20.7,9.4,30.20,SW,233,0.0,0.0,61,0.00,,---,0.00,0.00,VWS V14.01,2013-02-02 06:41:00,
2013-02-02 01:42:00,20.7,9.4,30.20,WSW,240,0.0,0.0,61,0.00,,---,0.00,0.00,VWS V14.01,2013-02-02 06:42:00,
2013-02-02 01:43:00,20.7,9.4,30.20,West,277,0.0,2.0,61,0.00,,---,0.00,0.00,VWS V14.01,2013-02-02 06:43:00,
2013-02-02 01:47:00,20.6,8.9,30.20,SW,215,0.0,2.0,60,0.00,,---,0.00,0.00,VWS V14.01,2013-02-02 06:47:00,
2013-02-02 01:48:00,20.6,8.9,30.20,West,279,0.0,5.0,60,0.00,,---,0.00,0.00,VWS V14.01,2013-02-02 06:48:00,
2013-02-02 01:52:00,20.6,9.7,30.20,WSW,243,0.0,1.0,62,0.00,,---,0.00,0.00,VWS V14.01,2013-02-02 06:52:00,
2013-02-02 01:54:00,20.7,9.8,30.20,WSW,237,1.0,1.0,62,0.00,,---,0.00,0.00,VWS V14.01,2013-02-02 06:54:00,
2013-02-02 01:57:00,20.6,9.7,30.21,SW,227,0.0,2.0,62,0.00,,---,0.00,0.00,VWS V14.01,2013-02-02 06:57:00,
2013-02-02 01:59:00,20.6,9.3,30.21,SW,231,0.0,2.0,61,0.00,,---,0.00,0.00,VWS V14.01,2013-02-02 06:59:00,
2013-02-02 02:02:00,20.6,9.3,30.21,WSW,250,0.0,0.0,61,0.00,,---,0.00,0.00,VWS V14.01,2013-02-02 07:02:00,
2013-02-02 02:04:00,20.6,9.3,30.21,WSW,250,0.0,0.0,61,0.00,,---,0.00,0.00,VWS V14.01,2013-02-02 07:04:00,
2013-02-02 02:07:00,20.6,9.3,30.21,WSW,250,0.0,1.0,61,0.00,,---,0.00,0.00,VWS V14.01,2013-02-02 07:07:00,
2013-02-02 02:09:00,20.5,9.6,30.21,WSW,250,0.0,1.0,62,0.00,,---,0.00,0.00,VWS V14.01,2013-02-02 07:09:00,
2013-02-02 02:12:00,20.5,9.2,30.21,SSW,213,0.0,0.0,61,0.00,,---,0.00,0.00,VWS V14.01,2013-02-02 07:12:00,
2013-02-02 02:14:00,20.5,9.6,30.21,NNW,332,0.0,2.0,62,0.00,,---,0.00,0.00,VWS V14.01,2013-02-02 07:14:00,
2013-02-02 02:17:00,20.4,9.5,30.21,NW,317,1.0,2.0,62,0.00,,---,0.00,0.00,VWS V14.01,2013-02-02 07:17:00,
2013-02-02 02:18:00,20.4,9.5,30.21,WSW,238,3.0,3.0,62,0.00,,---,0.00,0.00,VWS V14.01,2013-02-02 07:18:00,
2013-02-02 02:19:00,20.4,9.5,30.21,WSW,238,1.0,3.0,62,0.00,,---,0.00,0.00,VWS V14.01,2013-02-02 07:19:00,
2013-02-02 02:22:00,20.4,9.5,30.21,WSW,238,0.0,0.0,62,0.00,,---,0.00,0.00,VWS V14.01,2013-02-02 07:22:00,
2013-02-02 02:23:00,20.4,9.5,30.22,WSW,239,0.0,0.0,62,0.00,,---,0.00,0.00,VWS V14.01,2013-02-02 07:23:00,
2013-02-02 02:24:00,20.4,9.5,30.22,WSW,239,0.0,0.0,62,0.00,,---,0.00,0.00,VWS V14.01,2013-02-02 07:24:00,
2013-02-02 02:27:00,20.3,10.1,30.22,WSW,238,1.0,1.0,64,0.00,,---,0.00,0.00,VWS V14.01,2013-02-02 07:27:00,
2013-02-02 02:28:00,20.3,9.7,30.22,WSW,238,1.0,1.0,63,0.00,,---,0.00,0.00,VWS V14.01,2013-02-02 07:28:00,
2013-02-02 02:29:00,20.3,10.1,30.22,WSW,239,0.0,2.0,64,0.00,,---,0.00,0.00,VWS V14.01,2013-02-02 07:29:00,
2013-02-02 02:32:00,20.3,9.7,30.22,WSW,238,0.0,1.0,63,0.00,,---,0.00,0.00,VWS V14.01,2013-02-02 07:32:00,
2013-02-02 02:34:00,20.3,9.7,30.22,WSW,238,0.0,1.0,63,0.00,,---,0.00,0.00,VWS V14.01,2013-02-02 07:34:00,
2013-02-02 02:37:00,20.2,10.0,30.22,WSW,238,0.0,1.0,64,0.00,,---,0.00,0.00,VWS V14.01,2013-02-02 07:37:00,
2013-02-02 02:39:00,20.2,10.0,30.22,WSW,237,1.0,2.0,64,0.00,,---,0.00,0.00,VWS V14.01,2013-02-02 07:39:00,
2013-02-02 02:42:00,20.2,10.0,30.22,WSW,240,0.0,1.0,64,0.00,,---,0.00,0.00,VWS V14.01,2013-02-02 07:42:00,
2013-02-02 02:44:00,20.2,9.6,30.22,WSW,240,0.0,1.0,63,0.00,,---,0.00,0.00,VWS V14.01,2013-02-02 07:44:00,
2013-02-02 02:47:00,20.1,10.2,30.22,WSW,240,0.0,1.0,65,0.00,,---,0.00,0.00,VWS V14.01,2013-02-02 07:47:00,
2013-02-02 02:49:00,20.1,10.2,30.22,WSW,240,0.0,1.0,65,0.00,,---,0.00,0.00,VWS V14.01,2013-02-02 07:49:00,
2013-02-02 02:52:00,20.1,9.9,30.21,SW,231,0.0,0.0,64,0.00,,---,0.00,0.00,VWS V14.01,2013-02-02 07:52:00,
2013-02-02 02:54:00,20.1,10.2,30.21,SW,231,1.0,1.0,65,0.00,,---,0.00,0.00,VWS V14.01,2013-02-02 07:54:00,
2013-02-02 02:57:00,20.0,10.1,30.21,West,271,0.0,1.0,65,0.00,,---,0.00,0.00,VWS V14.01,2013-02-02 07:57:00,
2013-02-02 02:59:00,20.0,10.1,30.21,West,267,0.0,1.0,65,0.00,,---,0.00,0.00,VWS V14.01,2013-02-02 07:59:00,
2013-02-02 03:05:00,20.0,10.1,30.21,WSW,252,1.0,1.0,65,0.00,,---,0.00,0.00,VWS V14.01,2013-02-02 08:05:00,
2013-02-02 03:06:00,20.0,10.1,30.21,WSW,237,1.0,2.0,65,0.00,,---,0.00,0.00,VWS V14.01,2013-02-02 08:06:00,
2013-02-02 03:10:00,19.9,10.1,30.21,SW,236,1.0,2.0,65,0.00,,---,0.00,0.00,VWS V14.01,2013-02-02 08:10:00,
2013-02-02 03:11:00,19.9,10.1,30.21,SW,236,0.0,2.0,65,0.00,,---,0.00,0.00,VWS V14.01,2013-02-02 08:11:00,
2013-02-02 03:15:00,19.9,10.1,30.21,WSW,252,0.0,2.0,65,0.00,,---,0.00,0.00,VWS V14.01,2013-02-02 08:15:00,
2013-02-02 03:16:00,19.9,10.1,30.21,WSW,252,0.0,2.0,65,0.00,,---,0.00,0.00,VWS V14.01,2013-02-02 08:16:00,
2013-02-02 03:21:00,19.9,9.7,30.21,West,265,0.0,2.0,64,0.00,,---,0.00,0.00,VWS V14.01,2013-02-02 08:21:00,
2013-02-02 03:26:00,19.9,9.7,30.22,West,276,0.0,3.0,64,0.00,,---,0.00,0.00,VWS V14.01,2013-02-02 08:26:00,
2013-02-02 03:31:00,19.9,9.7,30.22,West,273,0.0,3.0,64,0.00,,---,0.00,0.00,VWS V14.01,2013-02-02 08:31:00,
2013-02-02 03:32:00,19.9,10.1,30.22,SW,227,1.0,1.0,65,0.00,,---,0.00,0.00,VWS V14.01,2013-02-02 08:32:00,
2013-02-02 03:36:00,19.9,10.1,30.22,WSW,254,0.0,2.0,65,0.00,,---,0.00,0.00,VWS V14.01,2013-02-02 08:36:00,
2013-02-02 03:37:00,19.9,10.1,30.22,WSW,254,0.0,2.0,65,0.00,,---,0.00,0.00,VWS V14.01,2013-02-02 08:37:00,
2013-02-02 03:41:00,19.9,10.1,30.22,West,272,0.0,2.0,65,0.00,,---,0.00,0.00,VWS V14.01,2013-02-02 08:41:00,
2013-02-02 03:42:00,19.9,10.1,30.22,West,272,0.0,0.0,65,0.00,,---,0.00,0.00,VWS V14.01,2013-02-02 08:42:00,
2013-02-02 03:46:00,19.9,10.1,30.22,West,279,0.0,0.0,65,0.00,,---,0.00,0.00,VWS V14.01,2013-02-02 08:46:00,
2013-02-02 03:47:00,19.9,10.1,30.22,West,279,0.0,1.0,65,0.00,,---,0.00,0.00,VWS V14.01,2013-02-02 08:47:00,
2013-02-02 03:51:00,19.9,10.1,30.22,WSW,239,0.0,0.0,65,0.00,,---,0.00,0.00,VWS V14.01,2013-02-02 08:51:00,
2013-02-02 03:52:00,19.9,10.1,30.22,WSW,239,0.0,0.0,65,0.00,,---,0.00,0.00,VWS V14.01,2013-02-02 08:52:00,
2013-02-02 03:56:00,19.8,9.9,30.23,SSW,194,0.0,1.0,65,0.00,,---,0.00,0.00,VWS V14.01,2013-02-02 08:56:00,
2013-02-02 03:57:00,19.9,10.1,30.23,SSW,194,0.0,1.0,65,0.00,,---,0.00,0.00,VWS V14.01,2013-02-02 08:57:00,
2013-02-02 04:01:00,19.8,9.9,30.23,SSW,194,0.0,1.0,65,0.00,,---,0.00,0.00,VWS V14.01,2013-02-02 09:01:00,
2013-02-02 04:02:00,19.8,9.9,30.23,SSW,194,0.0,0.0,65,0.00,,---,0.00,0.00,VWS V14.01,2013-02-02 09:02:00,
2013-02-02 04:03:00,19.8,9.9,30.23,SSW,194,0.0,0.0,65,0.00,,---,0.00,0.00,VWS V14.01,2013-02-02 09:03:00,
2013-02-02 04:06:00,19.8,9.9,30.23,SSW,194,0.0,1.0,65,0.00,,---,0.00,0.00,VWS V14.01,2013-02-02 09:06:00,
2013-02-02 04:07:00,19.8,9.9,30.23,SSW,194,0.0,1.0,65,0.00,,---,0.00,0.00,VWS V14.01,2013-02-02 09:07:00,
2013-02-02 04:08:00,19.8,9.9,30.23,SSW,194,0.0,1.0,65,0.00,,---,0.00,0.00,VWS V14.01,2013-02-02 09:08:00,
2013-02-02 04:11:00,19.8,10.3,30.23,SSW,194,0.0,1.0,66,0.00,,---,0.00,0.00,VWS V14.01,2013-02-02 09:11:00,
2013-02-02 04:12:00,19.7,10.2,30.23,SSW,194,0.0,0.0,66,0.00,,---,0.00,0.00,VWS V14.01,2013-02-02 09:12:00,
2013-02-02 04:13:00,19.7,10.2,30.23,SW,232,0.0,2.0,66,0.00,,---,0.00,0.00,VWS V14.01,2013-02-02 09:13:00,
2013-02-02 04:16:00,19.7,10.2,30.23,WSW,240,0.0,2.0,66,0.00,,---,0.00,0.00,VWS V14.01,2013-02-02 09:16:00,
2013-02-02 04:17:00,19.7,10.2,30.23,WSW,240,0.0,2.0,66,0.00,,---,0.00,0.00,VWS V14.01,2013-02-02 09:17:00,
2013-02-02 04:18:00,19.7,10.5,30.24,WSW,240,0.0,2.0,67,0.00,,---,0.00,0.00,VWS V14.01,2013-02-02 09:18:00,
2013-02-02 04:21:00,19.7,10.5,30.23,WSW,240,0.0,0.0,67,0.00,,---,0.00,0.00,VWS V14.01,2013-02-02 09:21:00,
2013-02-02 04:22:00,19.6,10.4,30.23,WSW,240,0.0,0.0,67,0.00,,---,0.00,0.00,VWS V14.01,2013-02-02 09:22:00,
2013-02-02 04:23:00,19.6,10.4,30.23,WSW,240,0.0,0.0,67,0.00,,---,0.00,0.00,VWS V14.01,2013-02-02 09:23:00,
2013-02-02 04:26:00,19.6,10.4,30.24,WSW,240,0.0,0.0,67,0.00,,---,0.00,0.00,VWS V14.01,2013-02-02 09:26:00,
2013-02-02 04:27:00,19.6,10.4,30.24,WSW,240,0.0,0.0,67,0.00,,---,0.00,0.00,VWS V14.01,2013-02-02 09:27:00,
2013-02-02 04:28:00,19.6,10.4,30.24,WSW,240,0.0,0.0,67,0.00,,---,0.00,0.00,VWS V14.01,2013-02-02 09:28:00,
2013-02-02 04:32:00,19.6,10.4,30.24,WSW,240,0.0,0.0,67,0.00,,---,0.00,0.00,VWS V14.01,2013-02-02 09:32:00,
2013-02-02 04:33:00,19.5,10.3,30.24,WSW,240,0.0,0.0,67,0.00,,---,0.00,0.00,VWS V14.01,2013-02-02 09:33:00,
2013-02-02 04:37:00,19.5,10.3,30.24,WSW,240,0.0,1.0,67,0.00,,---,0.00,0.00,VWS V14.01,2013-02-02 09:37:00,
2013-02-02 04:38:00,19.5,10.3,30.24,WSW,240,0.0,1.0,67,0.00,,---,0.00,0.00,VWS V14.01,2013-02-02 09:38:00,
2013-02-02 04:42:00,19.5,10.7,30.24,WSW,240,0.0,0.0,68,0.00,,---,0.00,0.00,VWS V14.01,2013-02-02 09:42:00,
2013-02-02 04:43:00,19.5,10.7,30.24,WSW,240,0.0,0.0,68,0.00,,---,0.00,0.00,VWS V14.01,2013-02-02 09:43:00,
2013-02-02 04:47:00,19.4,10.2,30.24,WSW,240,0.0,0.0,67,0.00,,---,0.00,0.00,VWS V14.01,2013-02-02 09:47:00,
2013-02-02 04:48:00,19.4,10.6,30.24,WSW,240,0.0,0.0,68,0.00,,---,0.00,0.00,VWS V14.01,2013-02-02 09:48:00,
2013-02-02 04:52:00,19.4,10.6,30.24,WSW,240,0.0,0.0,68,0.00,,---,0.00,0.00,VWS V14.01,2013-02-02 09:52:00,
2013-02-02 04:53:00,19.4,10.9,30.24,WSW,240,0.0,0.0,69,0.00,,---,0.00,0.00,VWS V14.01,2013-02-02 09:53:00,
2013-02-02 04:57:00,19.3,10.8,30.24,WSW,240,0.0,0.0,69,0.00,,---,0.00,0.00,VWS V14.01,2013-02-02 09:57:00,
2013-02-02 04:58:00,19.3,10.8,30.24,WSW,240,0.0,0.0,69,0.00,,---,0.00,0.00,VWS V14.01,2013-02-02 09:58:00,
2013-02-02 04:59:00,19.3,10.8,30.24,WSW,240,0.0,0.0,69,0.00,,---,0.00,0.00,VWS V14.01,2013-02-02 09:59:00,
2013-02-02 05:02:00,19.3,10.8,30.24,WSW,240,0.0,0.0,69,0.00,,---,0.00,0.00,VWS V14.01,2013-02-02 10:02:00,
2013-02-02 05:03:00,19.2,10.7,30.24,WSW,240,0.0,0.0,69,0.00,,---,0.00,0.00,VWS V14.01,2013-02-02 10:03:00,
2013-02-02 05:04:00,19.2,10.7,30.24,WSW,240,0.0,0.0,69,0.00,,---,0.00,0.00,VWS V14.01,2013-02-02 10:04:00,
2013-02-02 05:07:00,19.2,10.7,30.23,WSW,240,0.0,0.0,69,0.00,,---,0.00,0.00,VWS V14.01,2013-02-02 10:07:00,
2013-02-02 05:08:00,19.2,10.7,30.23,WSW,240,0.0,0.0,69,0.00,,---,0.00,0.00,VWS V14.01,2013-02-02 10:08:00,
2013-02-02 05:09:00,19.1,10.6,30.23,WSW,240,0.0,0.0,69,0.00,,---,0.00,0.00,VWS V14.01,2013-02-02 10:09:00,
2013-02-02 05:12:00,19.1,10.6,30.24,SW,234,0.0,2.0,69,0.00,,---,0.00,0.00,VWS V14.01,2013-02-02 10:12:00,
2013-02-02 05:13:00,19.1,10.3,30.24,SW,234,0.0,2.0,68,0.00,,---,0.00,0.00,VWS V14.01,2013-02-02 10:13:00,
2013-02-02 05:14:00,19.1,10.3,30.24,SW,234,0.0,2.0,68,0.00,,---,0.00,0.00,VWS V14.01,2013-02-02 10:14:00,
2013-02-02 05:17:00,19.1,10.6,30.24,SW,234,0.0,2.0,69,0.00,,---,0.00,0.00,VWS V14.01,2013-02-02 10:17:00,
2013-02-02 05:18:00,19.1,10.6,30.24,SW,234,0.0,2.0,69,0.00,,---,0.00,0.00,VWS V14.01,2013-02-02 10:18:00,
2013-02-02 05:19:00,19.1,10.6,30.24,SW,234,0.0,2.0,69,0.00,,---,0.00,0.00,VWS V14.01,2013-02-02 10:19:00,
2013-02-02 05:22:00,19.0,10.5,30.23,SW,234,0.0,0.0,69,0.00,,---,0.00,0.00,VWS V14.01,2013-02-02 10:22:00,
2013-02-02 05:23:00,19.0,10.5,30.23,SW,234,0.0,0.0,69,0.00,,---,0.00,0.00,VWS V14.01,2013-02-02 10:23:00,
2013-02-02 05:24:00,19.0,10.5,30.23,SW,234,0.0,0.0,69,0.00,,---,0.00,0.00,VWS V14.01,2013-02-02 10:24:00,
2013-02-02 05:27:00,19.0,10.8,30.23,SW,234,0.0,0.0,70,0.00,,---,0.00,0.00,VWS V14.01,2013-02-02 10:27:00,
2013-02-02 05:28:00,19.0,10.5,30.23,SW,234,0.0,0.0,69,0.00,,---,0.00,0.00,VWS V14.01,2013-02-02 10:28:00,
2013-02-02 05:29:00,19.0,10.5,30.23,SW,234,0.0,0.0,69,0.00,,---,0.00,0.00,VWS V14.01,2013-02-02 10:29:00,
2013-02-02 05:33:00,19.0,10.8,30.24,SW,234,0.0,0.0,70,0.00,,---,0.00,0.00,VWS V14.01,2013-02-02 10:33:00,
2013-02-02 05:34:00,19.0,10.8,30.24,SW,234,0.0,0.0,70,0.00,,---,0.00,0.00,VWS V14.01,2013-02-02 10:34:00,
2013-02-02 05:38:00,18.9,10.4,30.24,SW,234,0.0,0.0,69,0.00,,---,0.00,0.00,VWS V14.01,2013-02-02 10:38:00,
2013-02-02 05:39:00,18.9,10.4,30.24,SW,234,0.0,1.0,69,0.00,,---,0.00,0.00,VWS V14.01,2013-02-02 10:39:00,
2013-02-02 05:43:00,18.9,10.8,30.24,SW,234,0.0,0.0,70,0.00,,---,0.00,0.00,VWS V14.01,2013-02-02 10:43:00,
2013-02-02 05:44:00,18.9,10.8,30.24,SW,234,0.0,0.0,70,0.00,,---,0.00,0.00,VWS V14.01,2013-02-02 10:44:00,
2013-02-02 05:48:00,18.8,10.3,30.24,SW,234,0.0,0.0,69,0.00,,---,0.00,0.00,VWS V14.01,2013-02-02 10:48:00,
2013-02-02 05:49:00,18.8,10.3,30.24,SW,234,0.0,0.0,69,0.00,,---,0.00,0.00,VWS V14.01,2013-02-02 10:49:00,
2013-02-02 05:53:00,18.8,10.3,30.24,SW,234,0.0,0.0,69,0.00,,---,0.00,0.00,VWS V14.01,2013-02-02 10:53:00,
2013-02-02 05:54:00,18.8,10.3,30.24,SW,234,0.0,0.0,69,0.00,,---,0.00,0.00,VWS V14.01,2013-02-02 10:54:00,
2013-02-02 05:55:00,18.7,10.2,30.24,SW,234,0.0,0.0,69,0.00,,---,0.00,0.00,VWS V14.01,2013-02-02 10:55:00,
2013-02-02 05:58:00,18.7,10.2,30.24,SW,234,0.0,0.0,69,0.00,,---,0.00,0.00,VWS V14.01,2013-02-02 10:58:00,
2013-02-02 05:59:00,18.7,10.2,30.24,SW,234,0.0,0.0,69,0.00,,---,0.00,0.00,VWS V14.01,2013-02-02 10:59:00,
2013-02-02 06:00:00,18.7,10.2,30.24,SW,234,0.0,0.0,69,0.00,,---,0.00,0.00,VWS V14.01,2013-02-02 11:00:00,
2013-02-02 06:03:00,18.6,9.8,30.24,SW,234,0.0,0.0,68,0.00,,---,0.00,0.00,VWS V14.01,2013-02-02 11:03:00,
2013-02-02 06:04:00,18.5,9.7,30.24,SW,234,0.0,0.0,68,0.00,,---,0.00,0.00,VWS V14.01,2013-02-02 11:04:00,
2013-02-02 06:05:00,18.5,9.7,30.24,SW,234,0.0,0.0,68,0.00,,---,0.00,0.00,VWS V14.01,2013-02-02 11:05:00,
2013-02-02 06:08:00,18.5,9.7,30.23,SW,234,0.0,0.0,68,0.00,,---,0.00,0.00,VWS V14.01,2013-02-02 11:08:00,
2013-02-02 06:09:00,18.5,9.7,30.24,SW,234,0.0,0.0,68,0.00,,---,0.00,0.00,VWS V14.01,2013-02-02 11:09:00,
2013-02-02 06:10:00,18.5,9.4,30.24,SW,234,0.0,0.0,67,0.00,,---,0.00,0.00,VWS V14.01,2013-02-02 11:10:00,
2013-02-02 06:13:00,18.4,9.6,30.24,SW,234,0.0,0.0,68,0.00,,---,0.00,0.00,VWS V14.01,2013-02-02 11:13:00,
2013-02-02 06:14:00,18.4,9.6,30.24,SW,234,0.0,0.0,68,0.00,,---,0.00,0.00,VWS V14.01,2013-02-02 11:14:00,
2013-02-02 06:15:00,18.4,9.6,30.24,SW,234,0.0,0.0,68,0.00,,---,0.00,0.00,VWS V14.01,2013-02-02 11:15:00,
2013-02-02 06:18:00,18.3,8.9,30.24,SW,234,0.0,1.0,66,0.00,,---,0.00,0.00,VWS V14.01,2013-02-02 11:18:00,
2013-02-02 06:19:00,18.3,9.2,30.24,SW,234,0.0,1.0,67,0.00,,---,0.00,0.00,VWS V14.01,2013-02-02 11:19:00,
2013-02-02 06:20:00,18.3,9.2,30.24,SW,234,0.0,1.0,67,0.00,,---,0.00,0.00,VWS V14.01,2013-02-02 11:20:00,
2013-02-02 06:23:00,18.2,9.1,30.24,WSW,246,0.0,3.0,67,0.00,,---,0.00,0.00,VWS V14.01,2013-02-02 11:23:00,
2013-02-02 06:24:00,18.2,9.1,30.24,WSW,246,0.0,3.0,67,0.00,,---,0.00,0.00,VWS V14.01,2013-02-02 11:24:00,
2013-02-02 06:25:00,18.2,9.1,30.24,WSW,246,0.0,3.0,67,0.00,,---,0.00,0.00,VWS V14.01,2013-02-02 11:25:00,
2013-02-02 06:28:00,18.2,9.1,30.25,WSW,246,0.0,3.0,67,0.00,,---,0.00,0.00,VWS V14.01,2013-02-02 11:28:00,
2013-02-02 06:29:00,18.2,9.1,30.25,WSW,246,0.0,3.0,67,0.00,,---,0.00,0.00,VWS V14.01,2013-02-02 11:29:00,
2013-02-02 06:30:00,18.2,9.1,30.25,WSW,246,0.0,3.0,67,0.00,,---,0.00,0.00,VWS V14.01,2013-02-02 11:30:00,
2013-02-02 06:33:00,18.2,9.4,30.25,WSW,246,0.0,0.0,68,0.00,,---,0.00,0.00,VWS V14.01,2013-02-02 11:33:00,
2013-02-02 06:34:00,18.2,9.4,30.25,WSW,246,0.0,0.0,68,0.00,,---,0.00,0.00,VWS V14.01,2013-02-02 11:34:00,
2013-02-02 06:35:00,18.2,9.4,30.25,WSW,246,0.0,0.0,68,0.00,,---,0.00,0.00,VWS V14.01,2013-02-02 11:35:00,
2013-02-02 06:36:00,18.2,9.4,30.25,WSW,246,0.0,0.0,68,0.00,,---,0.00,0.00,VWS V14.01,2013-02-02 11:36:00,
2013-02-02 06:38:00,18.1,9.3,30.25,WSW,246,0.0,0.0,68,0.00,,---,0.00,0.00,VWS V14.01,2013-02-02 11:38:00,
2013-02-02 06:39:00,18.2,9.4,30.25,WSW,246,0.0,0.0,68,0.00,,---,0.00,0.00,VWS V14.01,2013-02-02 11:39:00,
2013-02-02 06:40:00,18.1,9.3,30.25,WSW,246,0.0,0.0,68,0.00,,---,0.00,0.00,VWS V14.01,2013-02-02 11:40:00,
2013-02-02 06:41:00,18.1,9.3,30.25,WSW,246,0.0,0.0,68,0.00,,---,0.00,0.00,VWS V14.01,2013-02-02 11:41:00,
2013-02-02 06:44:00,18.1,9.3,30.25,WSW,246,0.0,0.0,68,0.00,,---,0.00,0.00,VWS V14.01,2013-02-02 11:44:00,
2013-02-02 06:45:00,18.1,9.3,30.25,WSW,246,0.0,0.0,68,0.00,,---,0.00,0.00,VWS V14.01,2013-02-02 11:45:00,
2013-02-02 06:46:00,18.1,9.3,30.25,WSW,246,0.0,0.0,68,0.00,,---,0.00,0.00,VWS V14.01,2013-02-02 11:46:00,
2013-02-02 06:49:00,18.1,9.7,30.25,WSW,246,0.0,0.0,69,0.00,,---,0.00,0.00,VWS V14.01,2013-02-02 11:49:00,
2013-02-02 06:50:00,18.1,9.0,30.25,WSW,246,0.0,1.0,67,0.00,,---,0.00,0.00,VWS V14.01,2013-02-02 11:50:00,
2013-02-02 06:51:00,18.1,9.0,30.25,WSW,246,0.0,0.0,67,0.00,,---,0.00,0.00,VWS V14.01,2013-02-02 11:51:00,
2013-02-02 06:54:00,18.0,9.2,30.25,WSW,246,0.0,1.0,68,0.00,,---,0.00,0.00,VWS V14.01,2013-02-02 11:54:00,
2013-02-02 06:55:00,18.0,9.2,30.25,WSW,246,0.0,1.0,68,0.00,,---,0.00,0.00,VWS V14.01,2013-02-02 11:55:00,
2013-02-02 06:56:00,18.0,9.2,30.25,WSW,246,0.0,1.0,68,0.00,,---,0.00,0.00,VWS V14.01,2013-02-02 11:56:00,
2013-02-02 06:59:00,18.0,9.2,30.25,WSW,246,0.0,1.0,68,0.00,,---,0.00,0.00,VWS V14.01,2013-02-02 11:59:00,
2013-02-02 07:00:00,17.9,9.1,30.25,WSW,246,0.0,1.0,68,0.00,,---,0.00,0.00,VWS V14.01,2013-02-02 12:00:00,
2013-02-02 07:01:00,17.9,8.8,30.25,WSW,246,0.0,1.0,67,0.00,,---,0.00,0.00,VWS V14.01,2013-02-02 12:01:00,
2013-02-02 07:04:00,17.9,8.8,30.25,WSW,246,0.0,1.0,67,0.00,,---,0.00,0.00,VWS V14.01,2013-02-02 12:04:00,
2013-02-02 07:05:00,17.9,8.8,30.25,WSW,246,0.0,1.0,67,0.00,,---,0.00,0.00,VWS V14.01,2013-02-02 12:05:00,
2013-02-02 07:06:00,17.8,8.7,30.25,WSW,246,0.0,1.0,67,0.00,,---,0.00,0.00,VWS V14.01,2013-02-02 12:06:00,
2013-02-02 07:09:00,17.8,8.7,30.25,WSW,246,0.0,1.0,67,0.00,,---,0.00,5.00,VWS V14.01,2013-02-02 12:09:00,
2013-02-02 07:10:00,17.8,9.0,30.25,WSW,246,0.0,1.0,68,0.00,,---,0.00,5.00,VWS V14.01,2013-02-02 12:10:00,
2013-02-02 07:11:00,17.8,9.0,30.25,WSW,246,0.0,1.0,68,0.00,,---,0.00,5.00,VWS V14.01,2013-02-02 12:11:00,
2013-02-02 07:12:00,17.8,9.0,30.25,WSW,246,0.0,0.0,68,0.00,,---,0.00,5.00,VWS V14.01,2013-02-02 12:12:00,
2013-02-02 07:14:00,17.8,9.0,30.25,WSW,246,0.0,0.0,68,0.00,,---,0.00,7.00,VWS V14.01,2013-02-02 12:14:00,
2013-02-02 07:15:00,17.7,9.3,30.25,WSW,246,0.0,0.0,69,0.00,,---,0.00,7.00,VWS V14.01,2013-02-02 12:15:00,
2013-02-02 07:16:00,17.7,9.3,30.25,WSW,246,0.0,0.0,69,0.00,,---,0.00,7.00,VWS V14.01,2013-02-02 12:16:00,
2013-02-02 07:17:00,17.7,8.9,30.25,WSW,246,0.0,0.0,68,0.00,,---,0.00,9.00,VWS V14.01,2013-02-02 12:17:00,
2013-02-02 07:20:00,17.7,8.9,30.25,WSW,246,0.0,0.0,68,0.00,,---,0.00,9.00,VWS V14.01,2013-02-02 12:20:00,
2013-02-02 07:21:00,17.7,8.9,30.26,WSW,246,0.0,0.0,68,0.00,,---,0.00,11.00,VWS V14.01,2013-02-02 12:21:00,
2013-02-02 07:22:00,17.7,8.9,30.25,WSW,246,0.0,0.0,68,0.00,,---,0.00,11.00,VWS V14.01,2013-02-02 12:22:00,
2013-02-02 07:25:00,17.7,8.6,30.26,WSW,246,0.0,0.0,67,0.00,,---,0.00,12.00,VWS V14.01,2013-02-02 12:25:00,
2013-02-02 07:26:00,17.7,8.6,30.26,WSW,246,0.0,0.0,67,0.00,,---,0.00,12.00,VWS V14.01,2013-02-02 12:26:00,
2013-02-02 07:27:00,17.7,8.6,30.26,WSW,246,0.0,0.0,67,0.00,,---,0.00,12.00,VWS V14.01,2013-02-02 12:27:00,
2013-02-02 07:30:00,17.7,8.9,30.26,WSW,246,0.0,0.0,68,0.00,,---,0.00,14.00,VWS V14.01,2013-02-02 12:30:00,
2013-02-02 07:31:00,17.7,8.6,30.26,WSW,246,0.0,1.0,67,0.00,,---,0.00,14.00,VWS V14.01,2013-02-02 12:31:00,
2013-02-02 07:32:00,17.7,8.6,30.26,WSW,246,0.0,0.0,67,0.00,,---,0.00,14.00,VWS V14.01,2013-02-02 12:32:00,
2013-02-02 07:35:00,17.7,8.6,30.26,WSW,246,0.0,1.0,67,0.00,,---,0.00,16.00,VWS V14.01,2013-02-02 12:35:00,
2013-02-02 07:36:00,17.7,8.6,30.26,WSW,246,0.0,1.0,67,0.00,,---,0.00,18.00,VWS V14.01,2013-02-02 12:36:00,
2013-02-02 07:37:00,17.7,8.9,30.26,WSW,246,0.0,1.0,68,0.00,,---,0.00,18.00,VWS V14.01,2013-02-02 12:37:00,
2013-02-02 07:40:00,17.7,8.9,30.26,WSW,246,0.0,1.0,68,0.00,,---,0.00,19.00,VWS V14.01,2013-02-02 12:40:00,
2013-02-02 07:41:00,17.7,8.9,30.26,WSW,246,0.0,1.0,68,0.00,,---,0.00,19.00,VWS V14.01,2013-02-02 12:41:00,
2013-02-02 07:42:00,17.7,8.9,30.26,WSW,246,0.0,0.0,68,0.00,,---,0.00,19.00,VWS V14.01,2013-02-02 12:42:00,
2013-02-02 07:45:00,17.7,9.3,30.26,WSW,246,0.0,0.0,69,0.00,,---,0.00,21.00,VWS V14.01,2013-02-02 12:45:00,
2013-02-02 07:46:00,17.7,8.9,30.26,WSW,246,0.0,0.0,68,0.00,,---,0.00,23.00,VWS V14.01,2013-02-02 12:46:00,
2013-02-02 07:47:00,17.8,9.0,30.26,WSW,246,0.0,0.0,68,0.00,,---,0.00,23.00,VWS V14.01,2013-02-02 12:47:00,
2013-02-02 07:50:00,17.9,8.8,30.26,SW,234,0.0,3.0,67,0.00,,---,0.00,28.00,VWS V14.01,2013-02-02 12:50:00,
2013-02-02 07:51:00,17.9,8.5,30.26,SW,234,0.0,3.0,66,0.00,,---,0.00,28.00,VWS V14.01,2013-02-02 12:51:00,
2013-02-02 07:52:00,18.0,8.9,30.27,SW,234,0.0,0.0,67,0.00,,---,0.00,30.00,VWS V14.01,2013-02-02 12:52:00,
2013-02-02 07:55:00,18.1,9.3,30.27,SW,234,0.0,1.0,68,0.00,,---,0.00,28.00,VWS V14.01,2013-02-02 12:55:00,
2013-02-02 07:56:00,18.1,9.0,30.27,SW,234,0.0,2.0,67,0.00,,---,0.00,25.00,VWS V14.01,2013-02-02 12:56:00,
2013-02-02 07:57:00,18.1,8.7,30.27,SW,234,0.0,2.0,66,0.00,,---,0.00,25.00,VWS V14.01,2013-02-02 12:57:00,
2013-02-02 08:00:00,18.2,9.1,30.27,SW,234,1.0,2.0,67,0.00,,---,0.00,26.00,VWS V14.01,2013-02-02 13:00:00,
2013-02-02 08:01:00,18.2,8.8,30.27,SW,234,0.0,2.0,66,0.00,,---,0.00,30.00,VWS V14.01,2013-02-02 13:01:00,
2013-02-02 08:02:00,18.2,9.1,30.27,SW,234,0.0,0.0,67,0.00,,---,0.00,32.00,VWS V14.01,2013-02-02 13:02:00,
2013-02-02 08:03:00,18.2,9.4,30.27,SW,234,1.0,1.0,68,0.00,,---,0.00,35.00,VWS V14.01,2013-02-02 13:03:00,
2013-02-02 08:05:00,18.3,9.5,30.27,West,259,0.0,1.0,68,0.00,,---,0.00,30.00,VWS V14.01,2013-02-02 13:05:00,
2013-02-02 08:06:00,18.3,9.2,30.27,West,259,0.0,1.0,67,0.00,,---,0.00,30.00,VWS V14.01,2013-02-02 13:06:00,
2013-02-02 08:07:00,18.3,8.9,30.27,West,259,0.0,1.0,66,0.00,,---,0.00,33.00,VWS V14.01,2013-02-02 13:07:00,
2013-02-02 08:08:00,18.3,8.9,30.27,West,259,0.0,1.0,66,0.00,,---,0.00,35.00,VWS V14.01,2013-02-02 13:08:00,
2013-02-02 08:10:00,18.4,9.3,30.27,West,259,0.0,1.0,67,0.00,,---,0.00,28.00,VWS V14.01,2013-02-02 13:10:00,
2013-02-02 08:11:00,18.4,9.3,30.27,SSW,212,0.0,0.0,67,0.00,,---,0.00,33.00,VWS V14.01,2013-02-02 13:11:00,
2013-02-02 08:12:00,18.4,9.3,30.27,SSW,212,0.0,1.0,67,0.00,,---,0.00,30.00,VWS V14.01,2013-02-02 13:12:00,
2013-02-02 08:13:00,18.4,9.0,30.27,SSW,212,0.0,1.0,66,0.00,,---,0.00,33.00,VWS V14.01,2013-02-02 13:13:00,
2013-02-02 08:16:00,18.5,9.4,30.27,SSW,213,1.0,1.0,67,0.00,,---,0.00,32.00,VWS V14.01,2013-02-02 13:16:00,
2013-02-02 08:17:00,18.5,9.4,30.27,SW,226,0.0,2.0,67,0.00,,---,0.00,30.00,VWS V14.01,2013-02-02 13:17:00,
2013-02-02 08:18:00,18.5,9.1,30.27,SW,229,2.0,2.0,66,0.00,,---,0.00,35.00,VWS V14.01,2013-02-02 13:18:00,
2013-02-02 08:21:00,18.6,9.1,30.27,SW,229,1.0,3.0,66,0.00,,---,0.00,84.00,VWS V14.01,2013-02-02 13:21:00,
2013-02-02 08:22:00,18.7,8.9,30.27,SW,229,0.0,1.0,65,0.00,,---,0.00,88.00,VWS V14.01,2013-02-02 13:22:00,
2013-02-02 08:23:00,18.8,8.6,30.27,WSW,244,1.0,2.0,64,0.00,,---,0.00,86.00,VWS V14.01,2013-02-02 13:23:00,
2013-02-02 08:26:00,19.0,9.2,30.27,WSW,244,0.0,2.0,65,0.00,,---,0.00,62.00,VWS V14.01,2013-02-02 13:26:00,
2013-02-02 08:27:00,19.1,9.3,30.27,North,5,1.0,2.0,65,0.00,,---,0.00,58.00,VWS V14.01,2013-02-02 13:27:00,
2013-02-02 08:28:00,19.2,9.4,30.27,SW,231,0.0,4.0,65,0.00,,---,0.00,49.00,VWS V14.01,2013-02-02 13:28:00,
2013-02-02 08:31:00,19.4,9.6,30.27,SW,231,0.0,4.0,65,0.00,,---,0.00,130.00,VWS V14.01,2013-02-02 13:31:00,
2013-02-02 08:32:00,19.5,9.7,30.27,SW,231,0.0,0.0,65,0.00,,---,0.00,121.00,VWS V14.01,2013-02-02 13:32:00,
2013-02-02 08:33:00,19.6,9.8,30.27,SW,232,1.0,2.0,65,0.00,,---,0.00,123.00,VWS V14.01,2013-02-02 13:33:00,
2013-02-02 08:36:00,19.5,9.0,30.27,WSW,253,0.0,2.0,63,0.00,,---,0.00,70.00,VWS V14.01,2013-02-02 13:36:00,
2013-02-02 08:37:00,19.4,8.5,30.27,WSW,253,0.0,2.0,62,0.00,,---,0.00,70.00,VWS V14.01,2013-02-02 13:37:00,
2013-02-02 08:38:00,19.5,9.0,30.27,WSW,253,0.0,2.0,63,0.00,,---,0.00,74.00,VWS V14.01,2013-02-02 13:38:00,
2013-02-02 08:39:00,19.5,9.0,30.27,WSW,252,1.0,2.0,63,0.00,,---,0.00,67.00,VWS V14.01,2013-02-02 13:39:00,
2013-02-02 08:41:00,19.4,8.2,30.27,WSW,238,1.0,1.0,61,0.00,,---,0.00,70.00,VWS V14.01,2013-02-02 13:41:00,
2013-02-02 08:42:00,19.4,8.5,30.27,WSW,238,0.0,1.0,62,0.00,,---,0.00,70.00,VWS V14.01,2013-02-02 13:42:00,
2013-02-02 08:43:00,19.4,8.5,30.27,WSW,238,0.0,1.0,62,0.00,,---,0.00,69.00,VWS V14.01,2013-02-02 13:43:00,
2013-02-02 08:44:00,19.4,8.9,30.27,WSW,238,0.0,1.0,63,0.00,,---,0.00,63.00,VWS V14.01,2013-02-02 13:44:00,
2013-02-02 08:47:00,19.7,9.2,30.27,WSW,238,1.0,1.0,63,0.00,,---,0.00,60.00,VWS V14.01,2013-02-02 13:47:00,
2013-02-02 08:48:00,19.8,9.3,30.26,WSW,238,0.0,1.0,63,0.00,,---,0.00,62.00,VWS V14.01,2013-02-02 13:48:00,
2013-02-02 08:49:00,19.9,9.4,30.26,WSW,238,0.0,1.0,63,0.00,,---,0.00,74.00,VWS V14.01,2013-02-02 13:49:00,
2013-02-02 08:52:00,19.9,8.6,30.26,NW,318,0.0,2.0,61,0.00,,---,0.00,104.00,VWS V14.01,2013-02-02 13:52:00,
2013-02-02 08:53:00,20.0,9.1,30.26,NW,326,0.0,2.0,62,0.00,,---,0.00,88.00,VWS V14.01,2013-02-02 13:53:00,
2013-02-02 08:54:00,20.0,9.1,30.26,WNW,294,0.0,2.0,62,0.00,,---,0.00,91.00,VWS V14.01,2013-02-02 13:54:00,
2013-02-02 08:57:00,20.0,8.7,30.26,NW,321,0.0,2.0,61,0.00,,---,0.00,83.00,VWS V14.01,2013-02-02 13:57:00,
2013-02-02 08:58:00,20.1,8.8,30.26,SW,224,0.0,2.0,61,0.00,,---,0.00,84.00,VWS V14.01,2013-02-02 13:58:00,
2013-02-02 08:59:00,20.1,8.8,30.26,SW,224,0.0,2.0,61,0.00,,---,0.00,69.00,VWS V14.01,2013-02-02 13:59:00,
2013-02-02 09:02:00,20.2,8.9,30.26,SSW,199,0.0,0.0,61,0.00,,---,0.00,113.00,VWS V14.01,2013-02-02 14:02:00,
2013-02-02 09:03:00,20.3,9.0,30.26,SSW,199,0.0,0.0,61,0.00,,---,0.00,118.00,VWS V14.01,2013-02-02 14:03:00,
2013-02-02 09:04:00,20.5,9.2,30.26,West,278,1.0,1.0,61,0.00,,---,0.00,121.00,VWS V14.01,2013-02-02 14:04:00,
2013-02-02 09:07:00,20.7,9.0,30.26,SW,233,0.0,2.0,60,0.00,,---,0.00,141.00,VWS V14.01,2013-02-02 14:07:00,
2013-02-02 09:08:00,20.7,9.0,30.26,WSW,254,1.0,2.0,60,0.00,,---,0.00,116.00,VWS V14.01,2013-02-02 14:08:00,
2013-02-02 09:09:00,20.7,9.0,30.26,WSW,249,0.0,2.0,60,0.00,,---,0.00,70.00,VWS V14.01,2013-02-02 14:09:00,
2013-02-02 09:12:00,20.5,8.5,30.26,SW,231,1.0,2.0,59,0.00,,---,0.00,148.00,VWS V14.01,2013-02-02 14:12:00,
2013-02-02 09:13:00,20.5,8.8,30.26,WNW,299,0.0,2.0,60,0.00,,---,0.00,139.00,VWS V14.01,2013-02-02 14:13:00,
2013-02-02 09:14:00,20.5,8.8,30.26,West,273,1.0,2.0,60,0.00,,---,0.00,142.00,VWS V14.01,2013-02-02 14:14:00,
2013-02-02 09:17:00,20.6,8.9,30.26,SW,229,0.0,2.0,60,0.00,,---,0.00,134.00,VWS V14.01,2013-02-02 14:17:00,
2013-02-02 09:18:00,20.6,8.6,30.26,SW,229,0.0,2.0,59,0.00,,---,0.00,172.00,VWS V14.01,2013-02-02 14:18:00,
2013-02-02 09:19:00,20.7,9.0,30.26,SW,229,0.0,2.0,60,0.00,,---,0.00,229.00,VWS V14.01,2013-02-02 14:19:00,
2013-02-02 09:22:00,21.1,9.4,30.26,SW,229,0.0,0.0,60,0.00,,---,0.00,216.00,VWS V14.01,2013-02-02 14:22:00,
2013-02-02 09:23:00,21.3,10.0,30.26,West,262,0.0,1.0,61,0.00,,---,0.00,269.00,VWS V14.01,2013-02-02 14:23:00,
2013-02-02 09:24:00,21.4,9.3,30.26,West,271,0.0,1.0,59,0.00,,---,0.00,269.00,VWS V14.01,2013-02-02 14:24:00,
2013-02-02 09:27:00,21.3,9.6,30.26,WNW,284,0.0,1.0,60,0.00,,---,0.00,241.00,VWS V14.01,2013-02-02 14:27:00,
2013-02-02 09:28:00,21.4,9.7,30.26,SW,227,1.0,3.0,60,0.00,,---,0.00,236.00,VWS V14.01,2013-02-02 14:28:00,
2013-02-02 09:30:00,21.3,8.8,30.26,South,180,0.0,3.0,58,0.00,,---,0.00,253.00,VWS V14.01,2013-02-02 14:30:00,
2013-02-02 09:32:00,21.3,9.6,30.26,South,180,0.0,1.0,60,0.00,,---,0.00,243.00,VWS V14.01,2013-02-02 14:32:00,
2013-02-02 09:33:00,21.5,9.8,30.26,SW,236,1.0,2.0,60,0.00,,---,0.00,297.00,VWS V14.01,2013-02-02 14:33:00,
2013-02-02 09:35:00,21.5,9.0,30.26,WSW,239,0.0,2.0,58,0.00,,---,0.00,371.00,VWS V14.01,2013-02-02 14:35:00,
2013-02-02 09:37:00,21.5,9.4,30.25,West,267,0.0,2.0,59,0.00,,---,0.00,181.00,VWS V14.01,2013-02-02 14:37:00,
2013-02-02 09:38:00,21.5,9.4,30.25,West,267,0.0,2.0,59,0.00,,---,0.00,227.00,VWS V14.01,2013-02-02 14:38:00,
2013-02-02 09:40:00,21.7,9.6,30.25,WSW,242,2.0,2.0,59,0.00,,---,0.00,232.00,VWS V14.01,2013-02-02 14:40:00,
2013-02-02 09:42:00,21.9,9.8,30.25,SW,232,3.0,3.0,59,0.00,,---,0.00,380.00,VWS V14.01,2013-02-02 14:42:00,
2013-02-02 09:43:00,21.9,9.8,30.25,SW,231,0.0,3.0,59,0.00,,---,0.00,306.00,VWS V14.01,2013-02-02 14:43:00,
2013-02-02 09:45:00,22.0,9.5,30.25,SW,231,0.0,3.0,58,0.00,,---,0.00,334.00,VWS V14.01,2013-02-02 14:45:00,
2013-02-02 09:47:00,22.4,9.9,30.25,WSW,242,1.0,3.0,58,0.00,,---,0.00,457.00,VWS V14.01,2013-02-02 14:47:00,
2013-02-02 09:48:00,22.4,9.5,30.25,NNW,327,0.0,3.0,57,0.00,,---,0.00,461.00,VWS V14.01,2013-02-02 14:48:00,
2013-02-02 09:50:00,22.3,9.4,30.25,SW,219,1.0,3.0,57,0.00,,---,0.00,464.00,VWS V14.01,2013-02-02 14:50:00,
2013-02-02 09:53:00,21.9,9.0,30.25,SW,227,0.0,1.0,57,0.00,,---,0.00,457.00,VWS V14.01,2013-02-02 14:53:00,
2013-02-02 09:54:00,21.9,9.0,30.25,SW,227,0.0,1.0,57,0.00,,---,0.00,422.00,VWS V14.01,2013-02-02 14:54:00,
2013-02-02 09:55:00,21.9,9.0,30.25,SW,227,0.0,1.0,57,0.00,,---,0.00,327.00,VWS V14.01,2013-02-02 14:55:00,
2013-02-02 09:58:00,22.2,9.3,30.25,SW,227,0.0,1.0,57,0.00,,---,0.00,243.00,VWS V14.01,2013-02-02 14:58:00,
2013-02-02 09:59:00,22.4,8.7,30.25,SW,227,0.0,1.0,55,0.00,,---,0.00,243.00,VWS V14.01,2013-02-02 14:59:00,
2013-02-02 10:00:00,22.4,8.7,30.25,WNW,288,0.0,1.0,55,0.00,,---,0.00,127.00,VWS V14.01,2013-02-02 15:00:00,
2013-02-02 10:03:00,22.7,9.4,30.25,WNW,286,0.0,0.0,56,0.00,,---,0.00,408.00,VWS V14.01,2013-02-02 15:03:00,
2013-02-02 10:04:00,22.7,9.4,30.25,SW,230,0.0,0.0,56,0.00,,---,0.00,404.00,VWS V14.01,2013-02-02 15:04:00,
2013-02-02 10:06:00,22.9,9.2,30.25,NW,321,0.0,1.0,55,0.00,,---,0.00,366.00,VWS V14.01,2013-02-02 15:06:00,
2013-02-02 10:08:00,22.9,8.8,30.25,WNW,284,0.0,1.0,54,0.00,,---,0.00,397.00,VWS V14.01,2013-02-02 15:08:00,
2013-02-02 10:09:00,22.9,8.8,30.25,WNW,284,0.0,1.0,54,0.00,,---,0.00,334.00,VWS V14.01,2013-02-02 15:09:00,
2013-02-02 10:11:00,23.0,8.9,30.25,SW,227,0.0,2.0,54,0.00,,---,0.00,241.00,VWS V14.01,2013-02-02 15:11:00,
2013-02-02 10:13:00,22.9,8.8,30.25,SW,227,0.0,2.0,54,0.00,,---,0.00,271.00,VWS V14.01,2013-02-02 15:13:00,
2013-02-02 10:14:00,22.9,8.8,30.25,SW,227,0.0,2.0,54,0.00,,---,0.00,272.00,VWS V14.01,2013-02-02 15:14:00,
2013-02-02 10:16:00,22.9,9.6,30.25,SW,227,0.0,2.0,56,0.00,,---,0.00,292.00,VWS V14.01,2013-02-02 15:16:00,
2013-02-02 10:18:00,22.7,9.0,30.24,ESE,112,0.0,2.0,55,0.00,,---,0.00,373.00,VWS V14.01,2013-02-02 15:18:00,
2013-02-02 10:19:00,22.7,9.0,30.24,ESE,112,0.0,2.0,55,0.00,,---,0.00,329.00,VWS V14.01,2013-02-02 15:19:00,
2013-02-02 10:21:00,22.9,9.6,30.25,ESE,112,0.0,2.0,56,0.00,,---,0.00,357.00,VWS V14.01,2013-02-02 15:21:00,
2013-02-02 10:23:00,23.1,8.9,30.25,ESE,112,0.0,0.0,54,0.00,,---,0.00,415.00,VWS V14.01,2013-02-02 15:23:00,
2013-02-02 10:24:00,23.1,8.9,30.25,ESE,112,0.0,0.0,54,0.00,,---,0.00,364.00,VWS V14.01,2013-02-02 15:24:00,
2013-02-02 10:26:00,23.7,10.3,30.24,SE,146,0.0,1.0,56,0.00,,---,0.00,292.00,VWS V14.01,2013-02-02 15:26:00,
2013-02-02 10:28:00,24.1,9.0,30.24,SE,132,0.0,1.0,52,0.00,,---,0.00,297.00,VWS V14.01,2013-02-02 15:28:00,
2013-02-02 10:29:00,24.1,9.0,30.24,SSE,148,1.0,1.0,52,0.00,,---,0.00,297.00,VWS V14.01,2013-02-02 15:29:00,
2013-02-02 10:31:00,24.5,9.8,30.24,SSW,197,0.0,2.0,53,0.00,,---,0.00,392.00,VWS V14.01,2013-02-02 15:31:00,
2013-02-02 10:33:00,24.1,8.6,30.24,WSW,248,1.0,4.0,51,0.00,,---,0.00,397.00,VWS V14.01,2013-02-02 15:33:00,
2013-02-02 10:34:00,24.0,8.5,30.24,WSW,248,0.0,4.0,51,0.00,,---,0.00,397.00,VWS V14.01,2013-02-02 15:34:00,
2013-02-02 10:36:00,23.7,8.2,30.24,WSW,247,0.0,4.0,51,0.00,,---,0.00,425.00,VWS V14.01,2013-02-02 15:36:00,
2013-02-02 10:39:00,23.8,9.2,30.24,WSW,247,0.0,4.0,53,0.00,,---,0.00,431.00,VWS V14.01,2013-02-02 15:39:00,
2013-02-02 10:41:00,24.7,10.0,30.24,SSW,205,1.0,4.0,53,0.00,,---,0.00,378.00,VWS V14.01,2013-02-02 15:41:00,
2013-02-02 10:44:00,24.9,10.2,30.24,SSW,206,1.0,2.0,53,0.00,,---,0.00,355.00,VWS V14.01,2013-02-02 15:44:00,
2013-02-02 10:46:00,24.5,9.4,30.24,SSW,206,0.0,2.0,52,0.00,,---,0.00,325.00,VWS V14.01,2013-02-02 15:46:00,
2013-02-02 10:49:00,24.6,9.5,30.24,WSW,238,2.0,2.0,52,0.00,,---,0.00,290.00,VWS V14.01,2013-02-02 15:49:00,
2013-02-02 10:51:00,24.6,9.1,30.24,SW,232,0.0,3.0,51,0.00,,---,0.00,374.00,VWS V14.01,2013-02-02 15:51:00,
2013-02-02 10:54:00,24.4,8.4,30.23,WSW,247,1.0,3.0,50,0.00,,---,0.00,490.00,VWS V14.01,2013-02-02 15:54:00,
2013-02-02 10:56:00,24.3,8.4,30.23,SE,141,1.0,3.0,50,0.00,,---,0.00,311.00,VWS V14.01,2013-02-02 15:56:00,
2013-02-02 10:59:00,24.3,8.8,30.23,SSE,167,1.0,3.0,51,0.00,,---,0.00,369.00,VWS V14.01,2013-02-02 15:59:00,
2013-02-02 11:00:00,24.4,8.9,30.23,SSE,167,0.0,3.0,51,0.00,,---,0.00,369.00,VWS V14.01,2013-02-02 16:00:00,
2013-02-02 11:02:00,24.8,9.7,30.23,SW,231,3.0,3.0,52,0.00,,---,0.00,476.00,VWS V14.01,2013-02-02 16:02:00,
2013-02-02 11:04:00,25.2,9.2,30.22,SW,231,0.0,3.0,50,0.00,,---,0.00,371.00,VWS V14.01,2013-02-02 16:04:00,
2013-02-02 11:05:00,25.2,9.2,30.22,South,170,1.0,3.0,50,0.00,,---,0.00,236.00,VWS V14.01,2013-02-02 16:05:00,
2013-02-02 11:07:00,24.9,8.5,30.22,SW,228,0.0,3.0,49,0.00,,---,0.00,185.00,VWS V14.01,2013-02-02 16:07:00,
2013-02-02 11:09:00,24.9,9.4,30.22,WSW,239,1.0,3.0,51,0.00,,---,0.00,178.00,VWS V14.01,2013-02-02 16:09:00,
2013-02-02 11:10:00,24.9,9.4,30.22,WSW,239,1.0,3.0,51,0.00,,---,0.00,185.00,VWS V14.01,2013-02-02 16:10:00,
2013-02-02 11:12:00,25.2,8.7,30.22,WSW,239,0.0,0.0,49,0.00,,---,0.00,294.00,VWS V14.01,2013-02-02 16:12:00,
2013-02-02 11:15:00,25.6,9.1,30.22,South,177,0.0,1.0,49,0.00,,---,0.00,336.00,VWS V14.01,2013-02-02 16:15:00,
2013-02-02 11:17:00,25.8,8.8,30.22,SSE,161,0.0,2.0,48,0.00,,---,0.00,276.00,VWS V14.01,2013-02-02 16:17:00,
2013-02-02 11:20:00,25.4,8.0,30.22,SE,132,1.0,2.0,47,0.00,,---,0.00,237.00,VWS V14.01,2013-02-02 16:20:00,
2013-02-02 11:22:00,25.3,8.4,30.22,South,171,1.0,1.0,48,0.00,,---,0.00,343.00,VWS V14.01,2013-02-02 16:22:00,
2013-02-02 11:25:00,25.5,9.0,30.22,SSE,148,0.0,2.0,49,0.00,,---,0.00,186.00,VWS V14.01,2013-02-02 16:25:00,
2013-02-02 11:27:00,25.6,8.6,30.22,SE,135,0.0,2.0,48,0.00,,---,0.00,167.00,VWS V14.01,2013-02-02 16:27:00,
2013-02-02 11:30:00,25.8,8.4,30.21,SSE,149,0.0,2.0,47,0.00,,---,0.00,144.00,VWS V14.01,2013-02-02 16:30:00,
2013-02-02 11:32:00,25.5,8.1,30.21,SE,138,1.0,1.0,47,0.00,,---,0.00,114.00,VWS V14.01,2013-02-02 16:32:00,
2013-02-02 11:35:00,25.8,9.3,30.21,SSE,155,0.0,2.0,49,0.00,,---,0.00,105.00,VWS V14.01,2013-02-02 16:35:00,
2013-02-02 11:37:00,26.2,9.2,30.21,SSE,167,1.0,2.0,48,0.00,,---,0.00,107.00,VWS V14.01,2013-02-02 16:37:00,
2013-02-02 11:40:00,26.2,8.3,30.21,WSW,242,2.0,3.0,46,0.00,,---,0.00,100.00,VWS V14.01,2013-02-02 16:40:00,
2013-02-02 11:41:00,26.2,8.3,30.21,SW,217,0.0,3.0,46,0.00,,---,0.00,134.00,VWS V14.01,2013-02-02 16:41:00,
2013-02-02 11:43:00,26.1,8.2,30.20,SW,217,2.0,4.0,46,0.00,,---,0.00,142.00,VWS V14.01,2013-02-02 16:43:00,
2013-02-02 11:45:00,26.2,8.3,30.20,SSW,199,0.0,4.0,46,0.00,,---,0.00,186.00,VWS V14.01,2013-02-02 16:45:00,
2013-02-02 11:46:00,26.3,8.8,30.20,SSW,205,1.0,4.0,47,0.00,,---,0.00,162.00,VWS V14.01,2013-02-02 16:46:00,
2013-02-02 11:48:00,26.3,8.4,30.20,SW,218,0.0,4.0,46,0.00,,---,0.00,93.00,VWS V14.01,2013-02-02 16:48:00,
2013-02-02 11:50:00,26.3,8.4,30.20,SW,219,2.0,4.0,46,0.00,,---,0.00,83.00,VWS V14.01,2013-02-02 16:50:00,
2013-02-02 11:51:00,26.5,8.0,30.20,North,5,0.0,4.0,45,0.00,,---,0.00,81.00,VWS V14.01,2013-02-02 16:51:00,
2013-02-02 11:53:00,26.4,7.5,30.19,SSE,157,0.0,1.0,44,0.00,,---,0.00,79.00,VWS V14.01,2013-02-02 16:53:00,
2013-02-02 11:55:00,26.9,8.9,30.19,SE,144,0.0,3.0,46,0.00,,---,0.00,79.00,VWS V14.01,2013-02-02 16:55:00,
2013-02-02 11:56:00,26.8,7.8,30.19,SSW,211,2.0,3.0,44,0.00,,---,0.00,86.00,VWS V14.01,2013-02-02 16:56:00,
2013-02-02 11:58:00,26.7,7.7,30.19,SW,227,1.0,3.0,44,0.00,,---,0.00,141.00,VWS V14.01,2013-02-02 16:58:00,
2013-02-02 12:00:00,26.8,8.3,30.19,SW,214,0.0,4.0,45,0.00,,---,0.00,97.00,VWS V14.01,2013-02-02 17:00:00,
2013-02-02 12:01:00,26.7,8.7,30.19,SW,223,1.0,1.0,46,0.00,,---,0.00,88.00,VWS V14.01,2013-02-02 17:01:00,
2013-02-02 12:03:00,26.7,8.2,30.19,SW,221,1.0,3.0,45,0.00,,---,0.00,113.00,VWS V14.01,2013-02-02 17:03:00,
2013-02-02 12:05:00,26.6,8.1,30.19,SW,234,0.0,3.0,45,0.00,,---,0.00,142.00,VWS V14.01,2013-02-02 17:05:00,
2013-02-02 12:06:00,26.6,8.1,30.18,SW,234,0.0,3.0,45,0.00,,---,0.00,125.00,VWS V14.01,2013-02-02 17:06:00,
2013-02-02 12:08:00,26.5,8.0,30.18,SSW,194,0.0,3.0,45,0.00,,---,0.00,109.00,VWS V14.01,2013-02-02 17:08:00,
2013-02-02 12:10:00,26.4,7.9,30.18,South,175,0.0,3.0,45,0.00,,---,0.00,83.00,VWS V14.01,2013-02-02 17:10:00,
2013-02-02 12:11:00,26.5,8.5,30.18,South,177,0.0,3.0,46,0.00,,---,0.00,93.00,VWS V14.01,2013-02-02 17:11:00,
2013-02-02 12:13:00,26.5,8.0,30.18,SE,131,1.0,4.0,45,0.00,,---,0.00,90.00,VWS V14.01,2013-02-02 17:13:00,
2013-02-02 12:15:00,26.4,8.4,30.18,SSE,147,0.0,4.0,46,0.00,,---,0.00,149.00,VWS V14.01,2013-02-02 17:15:00,
2013-02-02 12:16:00,26.4,8.4,30.18,SSW,196,1.0,4.0,46,0.00,,---,0.00,116.00,VWS V14.01,2013-02-02 17:16:00,
2013-02-02 12:18:00,26.7,8.2,30.18,SSE,152,1.0,4.0,45,0.00,,---,0.00,74.00,VWS V14.01,2013-02-02 17:18:00,
2013-02-02 12:20:00,27.0,8.5,30.17,SE,140,1.0,4.0,45,0.00,,---,0.00,114.00,VWS V14.01,2013-02-02 17:20:00,
2013-02-02 12:21:00,27.0,8.5,30.17,SE,143,4.0,4.0,45,0.00,,---,0.00,141.00,VWS V14.01,2013-02-02 17:21:00,
2013-02-02 12:22:00,26.9,7.9,30.17,South,172,1.0,2.0,44,0.00,,---,0.00,91.00,VWS V14.01,2013-02-02 17:22:00,
2013-02-02 12:23:00,26.9,7.9,30.17,NW,304,1.0,2.0,44,0.00,,---,0.00,72.00,VWS V14.01,2013-02-02 17:23:00,
2013-02-02 12:25:00,26.7,8.2,30.17,NNE,22,0.0,4.0,45,0.00,,---,0.00,83.00,VWS V14.01,2013-02-02 17:25:00,
2013-02-02 12:26:00,26.7,7.7,30.17,ESE,115,2.0,4.0,44,0.00,,---,0.00,93.00,VWS V14.01,2013-02-02 17:26:00,
2013-02-02 12:27:00,26.7,8.2,30.17,SSE,157,0.0,4.0,45,0.00,,---,0.00,116.00,VWS V14.01,2013-02-02 17:27:00,
2013-02-02 12:28:00,26.7,8.7,30.17,South,176,0.0,4.0,46,0.00,,---,0.00,139.00,VWS V14.01,2013-02-02 17:28:00,
2013-02-02 12:30:00,26.9,8.4,30.17,SSE,159,0.0,4.0,45,0.00,,---,0.00,84.00,VWS V14.01,2013-02-02 17:30:00,
2013-02-02 12:31:00,26.9,8.9,30.17,SSE,161,0.0,4.0,46,0.00,,---,0.00,84.00,VWS V14.01,2013-02-02 17:31:00,
2013-02-02 12:32:00,27.0,8.5,30.16,SSE,161,0.0,0.0,45,0.00,,---,0.00,86.00,VWS V14.01,2013-02-02 17:32:00,
2013-02-02 12:33:00,27.0,8.5,30.16,SW,224,2.0,3.0,45,0.00,,---,0.00,60.00,VWS V14.01,2013-02-02 17:33:00,
2013-02-02 12:36:00,27.1,8.6,30.17,SW,219,2.0,3.0,45,0.00,,---,0.00,60.00,VWS V14.01,2013-02-02 17:36:00,
2013-02-02 12:37:00,27.1,8.1,30.16,SW,225,2.0,5.0,44,0.00,,---,0.00,49.00,VWS V14.01,2013-02-02 17:37:00,
2013-02-02 12:38:00,27.2,8.2,30.16,SSW,199,1.0,5.0,44,0.00,,---,0.00,49.00,VWS V14.01,2013-02-02 17:38:00,
2013-02-02 12:41:00,27.1,7.1,30.16,SW,226,2.0,5.0,42,0.00,,---,0.00,49.00,VWS V14.01,2013-02-02 17:41:00,
2013-02-02 12:42:00,27.3,7.8,30.16,SW,223,0.0,2.0,43,0.00,,---,0.00,83.00,VWS V14.01,2013-02-02 17:42:00,
2013-02-02 12:44:00,27.3,7.8,30.16,South,169,0.0,2.0,43,0.00,,---,0.00,76.00,VWS V14.01,2013-02-02 17:44:00,
2013-02-02 12:46:00,27.4,7.3,30.16,SSW,210,0.0,3.0,42,0.00,,---,0.00,51.00,VWS V14.01,2013-02-02 17:46:00,
2013-02-02 12:47:00,27.5,7.4,30.16,SE,146,2.0,3.0,42,0.00,,---,0.00,51.00,VWS V14.01,2013-02-02 17:47:00,
2013-02-02 12:49:00,27.4,7.3,30.16,SSW,207,1.0,3.0,42,0.00,,---,0.00,76.00,VWS V14.01,2013-02-02 17:49:00,
2013-02-02 12:51:00,27.2,7.2,30.16,WSW,246,1.0,4.0,42,0.00,,---,0.00,53.00,VWS V14.01,2013-02-02 17:51:00,
2013-02-02 12:53:00,27.0,7.5,30.16,SW,228,0.0,2.0,43,0.00,,---,0.00,53.00,VWS V14.01,2013-02-02 17:53:00,
2013-02-02 12:54:00,26.9,7.4,30.16,WNW,288,0.0,2.0,43,0.00,,---,0.00,54.00,VWS V14.01,2013-02-02 17:54:00,
2013-02-02 12:56:00,27.1,8.1,30.16,SW,218,1.0,3.0,44,0.00,,---,0.00,54.00,VWS V14.01,2013-02-02 17:56:00,
2013-02-02 12:58:00,27.1,7.6,30.16,SSW,207,2.0,3.0,43,0.00,,---,0.00,93.00,VWS V14.01,2013-02-02 17:58:00,
2013-02-02 12:59:00,27.1,7.6,30.16,SSW,198,0.0,3.0,43,0.00,,---,0.00,95.00,VWS V14.01,2013-02-02 17:59:00,
2013-02-02 13:01:00,27.1,7.6,30.15,SSW,213,3.0,3.0,43,0.00,,---,0.00,120.00,VWS V14.01,2013-02-02 18:01:00,
2013-02-02 13:03:00,27.2,8.7,30.16,SW,215,0.0,2.0,45,0.00,,---,0.00,79.00,VWS V14.01,2013-02-02 18:03:00,
2013-02-02 13:04:00,27.2,8.2,30.15,SW,215,0.0,2.0,44,0.00,,---,0.00,56.00,VWS V14.01,2013-02-02 18:04:00,
2013-02-02 13:06:00,27.1,8.1,30.15,SSW,200,0.0,2.0,44,0.00,,---,0.00,65.00,VWS V14.01,2013-02-02 18:06:00,
2013-02-02 13:08:00,27.1,7.6,30.15,South,190,0.0,3.0,43,0.00,,---,0.00,58.00,VWS V14.01,2013-02-02 18:08:00,
2013-02-02 13:09:00,27.1,8.1,30.15,SSE,155,0.0,3.0,44,0.00,,---,0.00,53.00,VWS V14.01,2013-02-02 18:09:00,
2013-02-02 13:11:00,27.1,8.6,30.15,SE,146,0.0,0.0,45,0.00,,---,0.00,53.00,VWS V14.01,2013-02-02 18:11:00,
2013-02-02 13:12:00,27.0,8.0,30.15,SE,146,0.0,0.0,44,0.00,,---,0.00,53.00,VWS V14.01,2013-02-02 18:12:00,
2013-02-02 13:13:00,27.2,9.2,30.15,South,185,1.0,3.0,46,0.00,,---,0.00,54.00,VWS V14.01,2013-02-02 18:13:00,
2013-02-02 13:14:00,27.3,8.8,30.15,South,187,0.0,3.0,45,0.00,,---,0.00,62.00,VWS V14.01,2013-02-02 18:14:00,
2013-02-02 13:16:00,27.3,8.3,30.14,SW,225,0.0,4.0,44,0.00,,---,0.00,56.00,VWS V14.01,2013-02-02 18:16:00,
2013-02-02 13:17:00,27.3,8.8,30.14,SW,225,0.0,4.0,45,0.00,,---,0.00,56.00,VWS V14.01,2013-02-02 18:17:00,
2013-02-02 13:18:00,27.3,8.3,30.14,SW,224,2.0,4.0,44,0.00,,---,0.00,79.00,VWS V14.01,2013-02-02 18:18:00,
2013-02-02 13:19:00,27.4,8.4,30.14,SW,225,2.0,4.0,44,0.00,,---,0.00,98.00,VWS V14.01,2013-02-02 18:19:00,
2013-02-02 13:22:00,27.4,8.4,30.14,SSW,200,2.0,2.0,44,0.00,,---,0.00,65.00,VWS V14.01,2013-02-02 18:22:00,
2013-02-02 13:23:00,27.3,8.3,30.14,WSW,243,0.0,4.0,44,0.00,,---,0.00,72.00,VWS V14.01,2013-02-02 18:23:00,
2013-02-02 13:24:00,27.3,8.3,30.14,SSW,199,0.0,4.0,44,0.00,,---,0.00,72.00,VWS V14.01,2013-02-02 18:24:00,
2013-02-02 13:27:00,27.2,8.7,30.14,SW,235,0.0,4.0,45,0.00,,---,0.00,58.00,VWS V14.01,2013-02-02 18:27:00,
2013-02-02 13:28:00,27.1,8.1,30.13,SW,236,0.0,4.0,44,0.00,,---,0.00,58.00,VWS V14.01,2013-02-02 18:28:00,
2013-02-02 13:29:00,27.1,8.1,30.13,SW,236,0.0,4.0,44,0.00,,---,0.00,58.00,VWS V14.01,2013-02-02 18:29:00,
2013-02-02 13:32:00,27.2,9.2,30.13,SSW,200,2.0,2.0,46,0.00,,---,0.00,62.00,VWS V14.01,2013-02-02 18:32:00,
2013-02-02 13:33:00,27.5,9.9,30.13,WSW,244,1.0,3.0,47,0.00,,---,0.00,76.00,VWS V14.01,2013-02-02 18:33:00,
2013-02-02 13:34:00,27.5,9.4,30.13,South,174,0.0,3.0,46,0.00,,---,0.00,72.00,VWS V14.01,2013-02-02 18:34:00,
2013-02-02 13:37:00,27.5,9.4,30.13,SW,220,0.0,3.0,46,0.00,,---,0.00,65.00,VWS V14.01,2013-02-02 18:37:00,
2013-02-02 13:38:00,27.4,9.4,30.13,SW,215,2.0,3.0,46,0.00,,---,0.00,69.00,VWS V14.01,2013-02-02 18:38:00,
2013-02-02 13:39:00,27.4,9.4,30.13,SW,214,0.0,3.0,46,0.00,,---,0.00,83.00,VWS V14.01,2013-02-02 18:39:00,
2013-02-02 13:42:00,27.4,9.4,30.13,South,175,0.0,1.0,46,0.00,,---,0.00,65.00,VWS V14.01,2013-02-02 18:42:00,
2013-02-02 13:43:00,27.4,9.4,30.13,South,177,1.0,2.0,46,0.00,,---,0.00,53.00,VWS V14.01,2013-02-02 18:43:00,
2013-02-02 13:44:00,27.4,8.9,30.13,South,189,0.0,2.0,45,0.00,,---,0.00,58.00,VWS V14.01,2013-02-02 18:44:00,
2013-02-02 13:47:00,27.3,8.8,30.13,WSW,237,4.0,4.0,45,0.00,,---,0.00,56.00,VWS V14.01,2013-02-02 18:47:00,
2013-02-02 13:48:00,27.4,8.4,30.13,SE,142,0.0,4.0,44,0.00,,---,0.00,69.00,VWS V14.01,2013-02-02 18:48:00,
2013-02-02 13:49:00,27.3,8.8,30.13,SSW,200,1.0,4.0,45,0.00,,---,0.00,72.00,VWS V14.01,2013-02-02 18:49:00,
2013-02-02 13:52:00,27.3,8.8,30.13,SE,126,0.0,1.0,45,0.00,,---,0.00,58.00,VWS V14.01,2013-02-02 18:52:00,
2013-02-02 13:53:00,27.4,8.9,30.13,SW,231,0.0,2.0,45,0.00,,---,0.00,60.00,VWS V14.01,2013-02-02 18:53:00,
2013-02-02 13:54:00,27.5,8.5,30.13,WSW,246,0.0,2.0,44,0.00,,---,0.00,58.00,VWS V14.01,2013-02-02 18:54:00,
2013-02-02 13:57:00,27.5,7.9,30.13,South,190,0.0,2.0,43,0.00,,---,0.00,54.00,VWS V14.01,2013-02-02 18:57:00,
2013-02-02 13:59:00,27.5,7.9,30.13,South,190,0.0,2.0,43,0.00,,---,0.00,53.00,VWS V14.01,2013-02-02 18:59:00,
2013-02-02 14:02:00,27.5,7.9,30.13,SSW,211,0.0,1.0,43,0.00,,---,0.00,53.00,VWS V14.01,2013-02-02 19:02:00,
2013-02-02 14:04:00,27.5,7.9,30.13,ESE,123,1.0,2.0,43,0.00,,---,0.00,74.00,VWS V14.01,2013-02-02 19:04:00,
2013-02-02 14:07:00,27.6,8.0,30.12,ESE,121,1.0,3.0,43,0.00,,---,0.00,91.00,VWS V14.01,2013-02-02 19:07:00,
2013-02-02 14:09:00,27.5,7.4,30.12,South,169,1.0,3.0,42,0.00,,---,0.00,95.00,VWS V14.01,2013-02-02 19:09:00,
2013-02-02 14:12:00,27.2,6.6,30.12,South,188,0.0,2.0,41,0.00,,---,0.00,90.00,VWS V14.01,2013-02-02 19:12:00,
2013-02-02 14:13:00,27.2,7.2,30.12,SSE,159,1.0,2.0,42,0.00,,---,0.00,90.00,VWS V14.01,2013-02-02 19:13:00,
2013-02-02 14:14:00,27.2,7.7,30.12,SW,221,0.0,2.0,43,0.00,,---,0.00,120.00,VWS V14.01,2013-02-02 19:14:00,
2013-02-02 14:17:00,27.5,7.9,30.11,SW,216,1.0,2.0,43,0.00,,---,0.00,56.00,VWS V14.01,2013-02-02 19:17:00,
2013-02-02 14:18:00,27.6,7.5,30.12,SSW,205,0.0,2.0,42,0.00,,---,0.00,56.00,VWS V14.01,2013-02-02 19:18:00,
2013-02-02 14:19:00,27.8,8.2,30.12,WSW,253,3.0,4.0,43,0.00,,---,0.00,56.00,VWS V14.01,2013-02-02 19:19:00,
2013-02-02 14:20:00,27.8,8.2,30.12,WNW,288,1.0,4.0,43,0.00,,---,0.00,56.00,VWS V14.01,2013-02-02 19:20:00,
2013-02-02 14:22:00,27.9,8.3,30.11,South,171,1.0,3.0,43,0.00,,---,0.00,79.00,VWS V14.01,2013-02-02 19:22:00,
2013-02-02 14:23:00,27.9,7.8,30.11,SSE,165,1.0,3.0,42,0.00,,---,0.00,79.00,VWS V14.01,2013-02-02 19:23:00,
2013-02-02 14:25:00,27.8,7.7,30.11,South,178,0.0,3.0,42,0.00,,---,0.00,91.00,VWS V14.01,2013-02-02 19:25:00,
2013-02-02 14:27:00,27.6,8.0,30.11,SW,223,1.0,3.0,43,0.00,,---,0.00,102.00,VWS V14.01,2013-02-02 19:27:00,
2013-02-02 14:28:00,27.7,8.1,30.11,SW,223,1.0,3.0,43,0.00,,---,0.00,102.00,VWS V14.01,2013-02-02 19:28:00,
2013-02-02 14:30:00,27.9,8.3,30.11,SW,219,1.0,3.0,43,0.00,,---,0.00,63.00,VWS V14.01,2013-02-02 19:30:00,
2013-02-02 14:32:00,28.0,8.4,30.11,SSW,213,0.0,1.0,43,0.00,,---,0.00,72.00,VWS V14.01,2013-02-02 19:32:00,
2013-02-02 14:33:00,28.0,7.9,30.11,SSW,213,0.0,1.0,42,0.00,,---,0.00,72.00,VWS V14.01,2013-02-02 19:33:00,
2013-02-02 14:35:00,27.9,7.3,30.11,West,263,1.0,4.0,41,0.00,,---,0.00,91.00,VWS V14.01,2013-02-02 19:35:00,
2013-02-02 14:38:00,27.8,7.2,30.11,SSW,212,0.0,4.0,41,0.00,,---,0.00,113.00,VWS V14.01,2013-02-02 19:38:00,
2013-02-02 14:40:00,27.8,6.6,30.11,WSW,255,0.0,4.0,40,0.00,,---,0.00,102.00,VWS V14.01,2013-02-02 19:40:00,
2013-02-02 14:43:00,28.0,7.4,30.11,SW,223,0.0,2.0,41,0.00,,---,0.00,60.00,VWS V14.01,2013-02-02 19:43:00,
2013-02-02 14:45:00,28.0,8.4,30.10,WSW,242,0.0,4.0,43,0.00,,---,0.00,56.00,VWS V14.01,2013-02-02 19:45:00,
2013-02-02 14:48:00,27.8,8.2,30.10,SSW,192,0.0,4.0,43,0.00,,---,0.00,54.00,VWS V14.01,2013-02-02 19:48:00,
2013-02-02 14:50:00,27.7,8.6,30.10,SE,146,0.0,4.0,44,0.00,,---,0.00,51.00,VWS V14.01,2013-02-02 19:50:00,
2013-02-02 14:53:00,27.9,8.3,30.11,SW,229,0.0,3.0,43,0.00,,---,0.00,51.00,VWS V14.01,2013-02-02 19:53:00,
2013-02-02 14:55:00,27.9,7.8,30.10,WSW,242,0.0,3.0,42,0.00,,---,0.00,51.00,VWS V14.01,2013-02-02 19:55:00,
2013-02-02 14:58:00,28.0,7.9,30.10,North,355,0.0,5.0,42,0.00,,---,0.00,62.00,VWS V14.01,2013-02-02 19:58:00,
2013-02-02 15:00:00,27.9,8.3,30.10,WSW,238,0.0,5.0,43,0.00,,---,0.00,76.00,VWS V14.01,2013-02-02 20:00:00,
2013-02-02 15:03:00,27.7,7.6,30.10,SW,221,0.0,3.0,42,0.00,,---,0.00,53.00,VWS V14.01,2013-02-02 20:03:00,
2013-02-02 15:04:00,27.6,7.5,30.10,SW,234,0.0,3.0,42,0.00,,---,0.00,53.00,VWS V14.01,2013-02-02 20:04:00,
2013-02-02 15:05:00,27.5,7.9,30.10,SW,234,0.0,3.0,43,0.00,,---,0.00,56.00,VWS V14.01,2013-02-02 20:05:00,
2013-02-02 15:06:00,27.5,7.9,30.10,SW,234,0.0,3.0,43,0.00,,---,0.00,60.00,VWS V14.01,2013-02-02 20:06:00,
2013-02-02 15:08:00,27.5,8.5,30.10,SW,221,0.0,3.0,44,0.00,,---,0.00,62.00,VWS V14.01,2013-02-02 20:08:00,
2013-02-02 15:09:00,27.6,8.6,30.10,SW,221,0.0,3.0,44,0.00,,---,0.00,63.00,VWS V14.01,2013-02-02 20:09:00,
2013-02-02 15:11:00,27.8,8.2,30.10,South,176,1.0,3.0,43,0.00,,---,0.00,69.00,VWS V14.01,2013-02-02 20:11:00,
2013-02-02 15:13:00,27.8,7.2,30.10,West,263,3.0,5.0,41,0.00,,---,0.00,74.00,VWS V14.01,2013-02-02 20:13:00,
2013-02-02 15:14:00,27.8,7.2,30.10,WSW,240,4.0,5.0,41,0.00,,---,0.00,70.00,VWS V14.01,2013-02-02 20:14:00,
2013-02-02 15:16:00,27.5,6.4,30.10,SW,229,2.0,5.0,40,0.00,,---,0.00,67.00,VWS V14.01,2013-02-02 20:16:00,
2013-02-02 15:18:00,27.4,7.3,30.10,ESE,113,0.0,5.0,42,0.00,,---,0.00,70.00,VWS V14.01,2013-02-02 20:18:00,
2013-02-02 15:19:00,27.4,6.8,30.10,SW,221,1.0,5.0,41,0.00,,---,0.00,70.00,VWS V14.01,2013-02-02 20:19:00,
2013-02-02 15:21:00,27.4,7.3,30.10,SW,221,0.0,5.0,42,0.00,,---,0.00,69.00,VWS V14.01,2013-02-02 20:21:00,
2013-02-02 15:23:00,27.3,6.7,30.10,WSW,246,0.0,6.0,41,0.00,,---,0.00,62.00,VWS V14.01,2013-02-02 20:23:00,
2013-02-02 15:24:00,27.2,6.6,30.10,SW,231,1.0,6.0,41,0.00,,---,0.00,58.00,VWS V14.01,2013-02-02 20:24:00,
2013-02-02 15:26:00,27.2,7.2,30.10,SSW,209,2.0,6.0,42,0.00,,---,0.00,56.00,VWS V14.01,2013-02-02 20:26:00,
2013-02-02 15:28:00,27.0,5.9,30.09,SSW,211,1.0,6.0,40,0.00,,---,0.00,56.00,VWS V14.01,2013-02-02 20:28:00,
2013-02-02 15:29:00,27.0,5.9,30.10,SW,216,2.0,6.0,40,0.00,,---,0.00,58.00,VWS V14.01,2013-02-02 20:29:00,
2013-02-02 15:31:00,27.0,5.9,30.09,SW,226,0.0,7.0,40,0.00,,---,0.00,60.00,VWS V14.01,2013-02-02 20:31:00,
2013-02-02 15:33:00,26.9,6.4,30.09,SSW,213,0.0,4.0,41,0.00,,---,0.00,67.00,VWS V14.01,2013-02-02 20:33:00,
2013-02-02 15:34:00,26.9,6.4,30.09,SSW,213,0.0,4.0,41,0.00,,---,0.00,63.00,VWS V14.01,2013-02-02 20:34:00,
2013-02-02 15:36:00,26.9,6.4,30.10,SW,227,1.0,4.0,41,0.00,,---,0.00,60.00,VWS V14.01,2013-02-02 20:36:00,
2013-02-02 15:38:00,26.8,5.7,30.10,SW,229,2.0,4.0,40,0.00,,---,0.00,58.00,VWS V14.01,2013-02-02 20:38:00,
2013-02-02 15:39:00,26.8,6.3,30.10,SW,229,0.0,4.0,41,0.00,,---,0.00,56.00,VWS V14.01,2013-02-02 20:39:00,
2013-02-02 15:41:00,26.9,6.4,30.09,SW,230,0.0,4.0,41,0.00,,---,0.00,58.00,VWS V14.01,2013-02-02 20:41:00,
2013-02-02 15:43:00,27.0,6.4,30.09,SW,214,0.0,2.0,41,0.00,,---,0.00,56.00,VWS V14.01,2013-02-02 20:43:00,
2013-02-02 15:44:00,27.0,6.4,30.09,SSW,192,0.0,2.0,41,0.00,,---,0.00,56.00,VWS V14.01,2013-02-02 20:44:00,
2013-02-02 15:46:00,26.9,6.4,30.09,SSW,198,0.0,2.0,41,0.00,,---,0.00,54.00,VWS V14.01,2013-02-02 20:46:00,
2013-02-02 15:48:00,26.9,5.8,30.09,SW,234,0.0,3.0,40,0.00,,---,0.00,51.00,VWS V14.01,2013-02-02 20:48:00,
2013-02-02 15:49:00,26.9,6.4,30.09,SW,234,0.0,3.0,41,0.00,,---,0.00,51.00,VWS V14.01,2013-02-02 20:49:00,
2013-02-02 15:51:00,26.9,5.8,30.09,SW,219,0.0,3.0,40,0.00,,---,0.00,49.00,VWS V14.01,2013-02-02 20:51:00,
2013-02-02 15:54:00,26.9,5.8,30.09,SW,221,2.0,2.0,40,0.00,,---,0.00,47.00,VWS V14.01,2013-02-02 20:54:00,
2013-02-02 15:56:00,26.9,6.4,30.09,SW,232,1.0,4.0,41,0.00,,---,0.00,47.00,VWS V14.01,2013-02-02 20:56:00,
2013-02-02 15:59:00,26.9,6.4,30.09,SSE,154,0.0,4.0,41,0.00,,---,0.00,44.00,VWS V14.01,2013-02-02 20:59:00,
2013-02-02 16:01:00,26.9,6.4,30.09,SE,127,1.0,4.0,41,0.00,,---,0.00,40.00,VWS V14.01,2013-02-02 21:01:00,
2013-02-02 16:04:00,26.9,6.9,30.09,SW,236,0.0,2.0,42,0.00,,---,0.00,40.00,VWS V14.01,2013-02-02 21:04:00,
2013-02-02 16:06:00,26.9,6.4,30.09,SSW,207,2.0,3.0,41,0.00,,---,0.00,40.00,VWS V14.01,2013-02-02 21:06:00,
2013-02-02 16:09:00,26.8,6.3,30.09,SSE,167,1.0,4.0,41,0.00,,---,0.00,35.00,VWS V14.01,2013-02-02 21:09:00,
2013-02-02 16:11:00,26.8,6.3,30.09,ESE,118,0.0,4.0,41,0.00,,---,0.00,35.00,VWS V14.01,2013-02-02 21:11:00,
2013-02-02 16:14:00,26.9,6.9,30.09,SSW,194,0.0,2.0,42,0.00,,---,0.00,35.00,VWS V14.01,2013-02-02 21:14:00,
2013-02-02 16:16:00,26.8,6.8,30.09,SSW,194,0.0,2.0,42,0.00,,---,0.00,35.00,VWS V14.01,2013-02-02 21:16:00,
2013-02-02 16:19:00,26.8,6.3,30.09,WSW,240,1.0,3.0,41,0.00,,---,0.00,33.00,VWS V14.01,2013-02-02 21:19:00,
2013-02-02 16:20:00,26.8,6.3,30.09,WSW,240,1.0,3.0,41,0.00,,---,0.00,33.00,VWS V14.01,2013-02-02 21:20:00,
2013-02-02 16:21:00,26.7,6.7,30.09,SW,232,0.0,3.0,42,0.00,,---,0.00,32.00,VWS V14.01,2013-02-02 21:21:00,
2013-02-02 16:22:00,26.7,6.2,30.09,SW,232,0.0,1.0,41,0.00,,---,0.00,32.00,VWS V14.01,2013-02-02 21:22:00,
2013-02-02 16:24:00,26.7,6.7,30.09,SW,232,0.0,1.0,42,0.00,,---,0.00,30.00,VWS V14.01,2013-02-02 21:24:00,
2013-02-02 16:25:00,26.6,6.6,30.09,SW,232,0.0,1.0,42,0.00,,---,0.00,30.00,VWS V14.01,2013-02-02 21:25:00,
2013-02-02 16:26:00,26.6,7.1,30.09,SW,232,0.0,1.0,43,0.00,,---,0.00,28.00,VWS V14.01,2013-02-02 21:26:00,
2013-02-02 16:27:00,26.7,6.7,30.09,SSW,200,1.0,1.0,42,0.00,,---,0.00,28.00,VWS V14.01,2013-02-02 21:27:00,
2013-02-02 16:29:00,26.7,6.7,30.09,WSW,242,1.0,2.0,42,0.00,,---,0.00,26.00,VWS V14.01,2013-02-02 21:29:00,
2013-02-02 16:30:00,26.7,6.7,30.09,WSW,242,0.0,2.0,42,0.00,,---,0.00,26.00,VWS V14.01,2013-02-02 21:30:00,
2013-02-02 16:31:00,26.6,6.6,30.09,WSW,241,0.0,2.0,42,0.00,,---,0.00,25.00,VWS V14.01,2013-02-02 21:31:00,
2013-02-02 16:32:00,26.7,6.7,30.09,WSW,241,0.0,1.0,42,0.00,,---,0.00,25.00,VWS V14.01,2013-02-02 21:32:00,
2013-02-02 16:34:00,26.7,7.7,30.09,WSW,242,1.0,2.0,44,0.00,,---,0.00,21.00,VWS V14.01,2013-02-02 21:34:00,
2013-02-02 16:35:00,26.7,7.7,30.09,WSW,242,0.0,2.0,44,0.00,,---,0.00,21.00,VWS V14.01,2013-02-02 21:35:00,
2013-02-02 16:36:00,26.7,7.7,30.09,WSW,242,0.0,2.0,44,0.00,,---,0.00,19.00,VWS V14.01,2013-02-02 21:36:00,
2013-02-02 16:37:00,26.7,7.2,30.09,WSW,242,0.0,2.0,43,0.00,,---,0.00,19.00,VWS V14.01,2013-02-02 21:37:00,
2013-02-02 16:39:00,26.7,7.2,30.09,WSW,242,0.0,2.0,43,0.00,,---,0.00,18.00,VWS V14.01,2013-02-02 21:39:00,
2013-02-02 16:40:00,26.7,7.2,30.09,SSW,212,0.0,2.0,43,0.00,,---,0.00,18.00,VWS V14.01,2013-02-02 21:40:00,
2013-02-02 16:41:00,26.7,7.7,30.09,SSW,213,0.0,2.0,44,0.00,,---,0.00,18.00,VWS V14.01,2013-02-02 21:41:00,
2013-02-02 16:42:00,26.7,7.7,30.09,WSW,248,0.0,2.0,44,0.00,,---,0.00,16.00,VWS V14.01,2013-02-02 21:42:00,
2013-02-02 16:44:00,26.6,7.6,30.09,WSW,248,0.0,2.0,44,0.00,,---,0.00,14.00,VWS V14.01,2013-02-02 21:44:00,
2013-02-02 16:45:00,26.6,7.6,30.09,WSW,248,0.0,2.0,44,0.00,,---,0.00,14.00,VWS V14.01,2013-02-02 21:45:00,
2013-02-02 16:46:00,26.6,7.6,30.09,WSW,248,0.0,2.0,44,0.00,,---,0.00,14.00,VWS V14.01,2013-02-02 21:46:00,
2013-02-02 16:47:00,26.6,7.1,30.09,South,184,0.0,2.0,43,0.00,,---,0.00,12.00,VWS V14.01,2013-02-02 21:47:00,
2013-02-02 16:49:00,26.5,6.5,30.09,SW,229,0.0,2.0,42,0.00,,---,0.00,12.00,VWS V14.01,2013-02-02 21:49:00,
2013-02-02 16:50:00,26.5,7.6,30.09,SW,229,0.0,2.0,44,0.00,,---,0.00,11.00,VWS V14.01,2013-02-02 21:50:00,
2013-02-02 16:51:00,26.5,7.6,30.09,SW,229,0.0,0.0,44,0.00,,---,0.00,11.00,VWS V14.01,2013-02-02 21:51:00,
2013-02-02 16:52:00,26.5,7.0,30.09,SW,229,0.0,0.0,43,0.00,,---,0.00,11.00,VWS V14.01,2013-02-02 21:52:00,
2013-02-02 16:55:00,26.4,7.5,30.08,SSW,207,2.0,4.0,44,0.00,,---,0.00,9.00,VWS V14.01,2013-02-02 21:55:00,
2013-02-02 16:57:00,26.4,7.9,30.08,SW,219,0.0,4.0,45,0.00,,---,0.00,7.00,VWS V14.01,2013-02-02 21:57:00,
2013-02-02 17:00:00,26.4,8.4,30.08,SSW,198,1.0,4.0,46,0.00,,---,0.00,5.00,VWS V14.01,2013-02-02 22:00:00,
2013-02-02 17:02:00,26.3,8.4,30.08,South,184,1.0,1.0,46,0.00,,---,0.00,5.00,VWS V14.01,2013-02-02 22:02:00,
2013-02-02 17:05:00,26.2,7.8,30.08,WSW,237,1.0,3.0,45,0.00,,---,0.00,0.00,VWS V14.01,2013-02-02 22:05:00,
2013-02-02 17:07:00,26.1,7.7,30.08,SW,227,0.0,3.0,45,0.00,,---,0.00,0.00,VWS V14.01,2013-02-02 22:07:00,
2013-02-02 17:10:00,26.0,7.6,30.08,SW,229,0.0,3.0,45,0.00,,---,0.00,0.00,VWS V14.01,2013-02-02 22:10:00,
2013-02-02 17:12:00,26.1,8.6,30.08,SW,229,1.0,1.0,47,0.00,,---,0.00,0.00,VWS V14.01,2013-02-02 22:12:00,
2013-02-02 17:15:00,26.0,8.1,30.08,SW,229,0.0,2.0,46,0.00,,---,0.00,0.00,VWS V14.01,2013-02-02 22:15:00,
2013-02-02 17:16:00,26.1,8.2,30.08,SW,229,1.0,2.0,46,0.00,,---,0.00,0.00,VWS V14.01,2013-02-02 22:16:00,
2013-02-02 17:17:00,26.1,8.2,30.08,SW,229,0.0,2.0,46,0.00,,---,0.00,0.00,VWS V14.01,2013-02-02 22:17:00,
2013-02-02 17:20:00,26.1,8.6,30.08,SW,229,0.0,2.0,47,0.00,,---,0.00,0.00,VWS V14.01,2013-02-02 22:20:00,
2013-02-02 17:21:00,26.1,8.6,30.08,SW,229,0.0,2.0,47,0.00,,---,0.00,0.00,VWS V14.01,2013-02-02 22:21:00,
2013-02-02 17:22:00,26.0,8.1,30.08,SW,229,0.0,0.0,46,0.00,,---,0.00,0.00,VWS V14.01,2013-02-02 22:22:00,
2013-02-02 17:23:00,26.0,8.1,30.08,SW,229,0.0,0.0,46,0.00,,---,0.00,0.00,VWS V14.01,2013-02-02 22:23:00,
2013-02-02 17:25:00,26.1,9.1,30.08,SW,229,0.0,0.0,48,0.00,,---,0.00,0.00,VWS V14.01,2013-02-02 22:25:00,
2013-02-02 17:26:00,26.1,9.1,30.08,SW,229,0.0,0.0,48,0.00,,---,0.00,0.00,VWS V14.01,2013-02-02 22:26:00,
2013-02-02 17:27:00,26.1,9.1,30.08,SW,229,0.0,0.0,48,0.00,,---,0.00,0.00,VWS V14.01,2013-02-02 22:27:00,
2013-02-02 17:28:00,26.1,9.1,30.08,SW,229,0.0,0.0,48,0.00,,---,0.00,0.00,VWS V14.01,2013-02-02 22:28:00,
2013-02-02 17:30:00,26.0,9.0,30.08,NW,315,0.0,2.0,48,0.00,,---,0.00,0.00,VWS V14.01,2013-02-02 22:30:00,
2013-02-02 17:31:00,26.0,8.6,30.08,SW,236,0.0,4.0,47,0.00,,---,0.00,0.00,VWS V14.01,2013-02-02 22:31:00,
2013-02-02 17:32:00,25.9,8.5,30.08,SW,236,0.0,0.0,47,0.00,,---,0.00,0.00,VWS V14.01,2013-02-02 22:32:00,
2013-02-02 17:33:00,25.9,8.5,30.08,SW,236,0.0,0.0,47,0.00,,---,0.00,0.00,VWS V14.01,2013-02-02 22:33:00,
2013-02-02 17:36:00,25.9,8.5,30.08,SW,216,0.0,1.0,47,0.00,,---,0.00,0.00,VWS V14.01,2013-02-02 22:36:00,
2013-02-02 17:38:00,25.8,8.8,30.08,SW,216,0.0,1.0,48,0.00,,---,0.00,0.00,VWS V14.01,2013-02-02 22:38:00,
2013-02-02 17:41:00,25.8,8.8,30.08,SW,216,0.0,1.0,48,0.00,,---,0.00,0.00,VWS V14.01,2013-02-02 22:41:00,
2013-02-02 17:43:00,25.8,8.8,30.08,SW,216,0.0,1.0,48,0.00,,---,0.00,0.00,VWS V14.01,2013-02-02 22:43:00,
2013-02-02 17:46:00,25.7,8.7,30.08,NW,321,0.0,2.0,48,0.00,,---,0.00,0.00,VWS V14.01,2013-02-02 22:46:00,
2013-02-02 17:48:00,25.7,8.7,30.08,NW,321,0.0,2.0,48,0.00,,---,0.00,0.00,VWS V14.01,2013-02-02 22:48:00,
2013-02-02 17:51:00,25.7,9.2,30.08,NW,321,0.0,2.0,49,0.00,,---,0.00,0.00,VWS V14.01,2013-02-02 22:51:00,
2013-02-02 17:53:00,25.7,9.2,30.08,West,263,0.0,1.0,49,0.00,,---,0.00,0.00,VWS V14.01,2013-02-02 22:53:00,
2013-02-02 17:56:00,25.7,9.2,30.08,West,263,0.0,1.0,49,0.00,,---,0.00,0.00,VWS V14.01,2013-02-02 22:56:00,
2013-02-02 17:58:00,25.7,9.6,30.08,West,263,0.0,1.0,50,0.00,,---,0.00,0.00,VWS V14.01,2013-02-02 22:58:00,
2013-02-02 18:01:00,25.6,9.1,30.08,West,263,0.0,1.0,49,0.00,,---,0.00,0.00,VWS V14.01,2013-02-02 23:01:00,
2013-02-02 18:03:00,25.6,9.1,30.08,West,263,0.0,1.0,49,0.00,,---,0.00,0.00,VWS V14.01,2013-02-02 23:03:00,
2013-02-02 18:06:00,25.6,9.6,30.08,West,263,0.0,2.0,50,0.00,,---,0.00,0.00,VWS V14.01,2013-02-02 23:06:00,
2013-02-02 18:08:00,25.6,9.1,30.08,West,263,0.0,2.0,49,0.00,,---,0.00,0.00,VWS V14.01,2013-02-02 23:08:00,
2013-02-02 18:11:00,25.6,9.1,30.08,West,263,0.0,2.0,49,0.00,,---,0.00,0.00,VWS V14.01,2013-02-02 23:11:00,
2013-02-02 18:13:00,25.5,9.5,30.08,West,263,0.0,0.0,50,0.00,,---,0.00,0.00,VWS V14.01,2013-02-02 23:13:00,
2013-02-02 18:14:00,25.6,9.6,30.08,WNW,289,1.0,1.0,50,0.00,,---,0.00,0.00,VWS V14.01,2013-02-02 23:14:00,
2013-02-02 18:16:00,25.5,9.0,30.08,West,269,0.0,1.0,49,0.00,,---,0.00,0.00,VWS V14.01,2013-02-02 23:16:00,
2013-02-02 18:18:00,25.4,9.4,30.08,West,269,0.0,1.0,50,0.00,,---,0.00,0.00,VWS V14.01,2013-02-02 23:18:00,
2013-02-02 18:19:00,25.5,9.0,30.08,West,269,0.0,1.0,49,0.00,,---,0.00,0.00,VWS V14.01,2013-02-02 23:19:00,
2013-02-02 18:21:00,25.4,8.9,30.08,West,269,0.0,0.0,49,0.00,,---,0.00,0.00,VWS V14.01,2013-02-02 23:21:00,
2013-02-02 18:23:00,25.4,9.4,30.08,West,269,0.0,1.0,50,0.00,,---,0.00,0.00,VWS V14.01,2013-02-02 23:23:00,
2013-02-02 18:24:00,25.4,9.4,30.08,West,269,0.0,1.0,50,0.00,,---,0.00,0.00,VWS V14.01,2013-02-02 23:24:00,
2013-02-02 18:26:00,25.4,9.4,30.08,West,269,0.0,1.0,50,0.00,,---,0.00,0.00,VWS V14.01,2013-02-02 23:26:00,
2013-02-02 18:28:00,25.4,9.4,30.08,West,269,0.0,1.0,50,0.00,,---,0.00,0.00,VWS V14.01,2013-02-02 23:28:00,
2013-02-02 18:29:00,25.4,9.8,30.08,West,269,0.0,1.0,51,0.00,,---,0.00,0.00,VWS V14.01,2013-02-02 23:29:00,
2013-02-02 18:31:00,25.4,9.4,30.08,West,269,0.0,0.0,50,0.00,,---,0.00,0.00,VWS V14.01,2013-02-02 23:31:00,
2013-02-02 18:32:00,25.4,9.4,30.08,West,269,0.0,0.0,50,0.00,,---,0.00,0.00,VWS V14.01,2013-02-02 23:32:00,
2013-02-02 18:33:00,25.4,9.4,30.08,West,269,0.0,0.0,50,0.00,,---,0.00,0.00,VWS V14.01,2013-02-02 23:33:00,
2013-02-02 18:34:00,25.4,9.4,30.08,West,269,0.0,0.0,50,0.00,,---,0.00,0.00,VWS V14.01,2013-02-02 23:34:00,
2013-02-02 18:37:00,25.4,10.2,30.08,West,269,0.0,0.0,52,0.00,,---,0.00,0.00,VWS V14.01,2013-02-02 23:37:00,
2013-02-02 18:39:00,25.4,9.8,30.08,West,269,0.0,0.0,51,0.00,,---,0.00,0.00,VWS V14.01,2013-02-02 23:39:00,
2013-02-02 18:42:00,25.4,10.2,30.08,West,269,0.0,0.0,52,0.00,,---,0.00,0.00,VWS V14.01,2013-02-02 23:42:00,
2013-02-02 18:44:00,25.4,9.8,30.08,SW,230,0.0,3.0,51,0.00,,---,0.00,0.00,VWS V14.01,2013-02-02 23:44:00,
2013-02-02 18:47:00,25.4,10.2,30.08,SW,231,0.0,3.0,52,0.00,,---,0.00,0.00,VWS V14.01,2013-02-02 23:47:00,
2013-02-02 18:49:00,25.4,10.7,30.08,SW,231,0.0,3.0,53,0.00,,---,0.00,0.00,VWS V14.01,2013-02-02 23:49:00,
2013-02-02 18:52:00,25.4,10.7,30.08,SW,231,0.0,0.0,53,0.00,,---,0.00,0.00,VWS V14.01,2013-02-02 23:52:00,
2013-02-02 18:54:00,25.4,10.2,30.08,SW,231,0.0,0.0,52,0.00,,---,0.00,0.00,VWS V14.01,2013-02-02 23:54:00,
2013-02-02 18:57:00,25.4,10.7,30.08,NNE,20,0.0,1.0,53,0.00,,---,0.00,0.00,VWS V14.01,2013-02-02 23:57:00,
2013-02-02 18:59:00,25.4,11.1,30.08,SW,234,0.0,2.0,54,0.00,,---,0.00,0.00,VWS V14.01,2013-02-02 23:59:00,
2013-02-02 19:02:00,25.3,11.8,30.08,SW,234,0.0,0.0,56,0.00,,---,0.00,0.00,VWS V14.01,2013-02-03 00:02:00,
2013-02-02 19:04:00,25.3,11.4,30.08,SW,234,0.0,1.0,55,0.00,,---,0.00,0.00,VWS V14.01,2013-02-03 00:04:00,
2013-02-02 19:07:00,25.3,11.4,30.08,SW,234,0.0,1.0,55,0.00,,---,0.00,0.00,VWS V14.01,2013-02-03 00:07:00,
2013-02-02 19:09:00,25.2,11.3,30.08,SW,234,0.0,1.0,55,0.00,,---,0.00,0.00,VWS V14.01,2013-02-03 00:09:00,
2013-02-02 19:10:00,25.2,11.3,30.08,SW,234,0.0,1.0,55,0.00,,---,0.00,0.00,VWS V14.01,2013-02-03 00:10:00,
2013-02-02 19:12:00,25.2,12.1,30.08,SW,234,0.0,0.0,57,0.00,,---,0.00,0.00,VWS V14.01,2013-02-03 00:12:00,
2013-02-02 19:14:00,25.1,12.0,30.08,SW,232,1.0,3.0,57,0.00,,---,0.00,0.00,VWS V14.01,2013-02-03 00:14:00,
2013-02-02 19:15:00,25.1,12.4,30.08,SW,232,0.0,3.0,58,0.00,,---,0.00,0.00,VWS V14.01,2013-02-03 00:15:00,
2013-02-02 19:17:00,25.1,12.8,30.08,West,265,1.0,3.0,59,0.00,,---,0.00,0.00,VWS V14.01,2013-02-03 00:17:00,
2013-02-02 19:19:00,25.0,12.7,30.08,SW,228,0.0,3.0,59,0.00,,---,0.00,0.00,VWS V14.01,2013-02-03 00:19:00,
2013-02-02 19:20:00,25.0,13.1,30.08,SW,228,0.0,3.0,60,0.00,,---,0.00,0.00,VWS V14.01,2013-02-03 00:20:00,
2013-02-02 19:22:00,24.9,13.0,30.08,SSW,209,0.0,2.0,60,0.00,,---,0.00,0.00,VWS V14.01,2013-02-03 00:22:00,
2013-02-02 19:25:00,24.9,13.0,30.08,SSW,209,0.0,2.0,60,0.00,,---,0.00,0.00,VWS V14.01,2013-02-03 00:25:00,
2013-02-02 19:27:00,24.9,13.4,30.08,SW,229,0.0,2.0,61,0.00,,---,0.00,0.00,VWS V14.01,2013-02-03 00:27:00,
2013-02-02 19:30:00,24.9,13.7,30.08,SSW,210,0.0,2.0,62,0.00,,---,0.00,0.00,VWS V14.01,2013-02-03 00:30:00,
2013-02-02 19:32:00,24.8,13.6,30.08,SSW,210,0.0,0.0,62,0.00,,---,0.00,0.00,VWS V14.01,2013-02-03 00:32:00,
2013-02-02 19:33:00,24.8,14.0,30.08,SSW,210,0.0,0.0,63,0.00,,---,0.00,0.00,VWS V14.01,2013-02-03 00:33:00,
2013-02-02 19:35:00,24.8,14.0,30.08,West,275,0.0,1.0,63,0.00,,---,0.00,0.00,VWS V14.01,2013-02-03 00:35:00,
2013-02-02 19:37:00,24.7,14.3,30.08,WNW,291,0.0,3.0,64,0.00,,---,0.00,0.00,VWS V14.01,2013-02-03 00:37:00,
2013-02-02 19:38:00,24.6,14.2,30.08,WNW,283,0.0,3.0,64,0.00,,---,0.00,0.00,VWS V14.01,2013-02-03 00:38:00,
2013-02-02 19:40:00,24.5,14.1,30.08,SW,236,1.0,3.0,64,0.00,,---,0.00,0.00,VWS V14.01,2013-02-03 00:40:00,
2013-02-02 19:42:00,24.4,14.7,30.08,SW,236,0.0,1.0,66,0.00,,---,0.00,0.00,VWS V14.01,2013-02-03 00:42:00,
2013-02-02 19:43:00,24.4,14.7,30.08,SW,236,0.0,1.0,66,0.00,,---,0.00,0.00,VWS V14.01,2013-02-03 00:43:00,
2013-02-02 19:45:00,24.3,14.6,30.08,West,280,0.0,1.0,66,0.00,,---,0.00,0.00,VWS V14.01,2013-02-03 00:45:00,
2013-02-02 19:47:00,24.3,15.6,30.08,East,94,0.0,1.0,69,0.00,,---,0.00,0.00,VWS V14.01,2013-02-03 00:47:00,
2013-02-02 19:48:00,24.3,15.6,30.08,SW,230,2.0,2.0,69,0.00,,---,0.00,0.00,VWS V14.01,2013-02-03 00:48:00,
2013-02-02 19:50:00,24.1,16.1,30.08,WSW,242,0.0,2.0,71,0.00,,---,0.00,0.00,VWS V14.01,2013-02-03 00:50:00,
2013-02-02 19:53:00,23.9,16.2,30.08,WSW,242,0.0,1.0,72,0.00,,---,0.00,0.00,VWS V14.01,2013-02-03 00:53:00,
2013-02-02 19:55:00,23.7,16.0,30.08,WSW,242,0.0,1.0,72,0.00,,---,0.00,0.00,VWS V14.01,2013-02-03 00:55:00,
2013-02-02 19:58:00,23.7,16.6,30.08,WSW,238,2.0,2.0,74,0.00,,---,0.00,0.00,VWS V14.01,2013-02-03 00:58:00,
2013-02-02 20:00:00,23.6,16.5,30.08,WSW,238,0.0,2.0,74,0.00,,---,0.00,0.00,VWS V14.01,2013-02-03 01:00:00,
2013-02-02 20:03:00,23.5,16.8,30.08,WSW,238,0.0,0.0,75,0.00,,---,0.00,0.00,VWS V14.01,2013-02-03 01:03:00,
2013-02-02 20:05:00,23.5,17.1,30.08,WSW,238,0.0,0.0,76,0.00,,---,0.00,0.00,VWS V14.01,2013-02-03 01:05:00,
2013-02-02 20:06:00,23.5,17.1,30.08,WSW,238,0.0,0.0,76,0.00,,---,0.00,0.00,VWS V14.01,2013-02-03 01:06:00,
2013-02-02 20:08:00,23.4,17.0,30.08,WSW,238,0.0,0.0,76,0.00,,---,0.00,0.00,VWS V14.01,2013-02-03 01:08:00,
2013-02-02 20:10:00,23.4,17.3,30.08,West,272,0.0,1.0,77,0.00,,---,0.00,0.00,VWS V14.01,2013-02-03 01:10:00,
2013-02-02 20:11:00,23.4,17.3,30.08,West,272,0.0,1.0,77,0.00,,---,0.00,0.00,VWS V14.01,2013-02-03 01:11:00,
2013-02-02 20:13:00,23.4,17.6,30.08,West,272,0.0,0.0,78,0.00,,---,0.00,0.00,VWS V14.01,2013-02-03 01:13:00,
2013-02-02 20:15:00,23.3,17.2,30.08,West,271,0.0,1.0,77,0.00,,---,0.00,0.00,VWS V14.01,2013-02-03 01:15:00,
2013-02-02 20:16:00,23.3,17.2,30.08,West,271,0.0,1.0,77,0.00,,---,0.00,0.00,VWS V14.01,2013-02-03 01:16:00,
2013-02-02 20:18:00,23.2,17.7,30.08,West,271,0.0,1.0,79,0.00,,---,0.00,0.00,VWS V14.01,2013-02-03 01:18:00,
2013-02-02 20:20:00,23.2,18.0,30.08,West,271,0.0,1.0,80,0.00,,---,0.00,0.00,VWS V14.01,2013-02-03 01:20:00,
2013-02-02 20:21:00,23.1,17.6,30.08,West,271,0.0,1.0,79,0.00,,---,0.00,0.00,VWS V14.01,2013-02-03 01:21:00,
2013-02-02 20:23:00,23.0,17.8,30.08,West,271,0.0,0.0,80,0.00,,---,0.00,0.00,VWS V14.01,2013-02-03 01:23:00,
2013-02-02 20:25:00,23.0,17.8,30.08,WNW,295,0.0,1.0,80,0.00,,---,0.00,0.00,VWS V14.01,2013-02-03 01:25:00,
2013-02-02 20:26:00,23.0,17.8,30.08,WNW,295,0.0,1.0,80,0.00,,---,0.00,0.00,VWS V14.01,2013-02-03 01:26:00,
2013-02-02 20:28:00,22.9,18.0,30.08,WNW,295,0.0,1.0,81,0.00,,---,0.00,0.00,VWS V14.01,2013-02-03 01:28:00,
2013-02-02 20:29:00,22.9,18.0,30.08,WNW,295,0.0,1.0,81,0.00,,---,0.00,0.00,VWS V14.01,2013-02-03 01:29:00,
2013-02-02 20:30:00,22.8,17.9,30.08,WNW,295,0.0,1.0,81,0.00,,---,0.00,0.00,VWS V14.01,2013-02-03 01:30:00,
2013-02-02 20:31:00,22.8,17.9,30.08,WNW,295,0.0,1.0,81,0.00,,---,0.00,0.00,VWS V14.01,2013-02-03 01:31:00,
2013-02-02 20:33:00,22.8,18.1,30.08,WNW,295,0.0,0.0,82,0.00,,---,0.00,0.00,VWS V14.01,2013-02-03 01:33:00,
2013-02-02 20:34:00,22.8,18.1,30.08,WNW,295,0.0,0.0,82,0.00,,---,0.00,0.00,VWS V14.01,2013-02-03 01:34:00,
2013-02-02 20:35:00,22.8,18.1,30.08,West,262,0.0,1.0,82,0.00,,---,0.00,0.00,VWS V14.01,2013-02-03 01:35:00,
2013-02-02 20:36:00,22.8,18.1,30.08,West,262,0.0,1.0,82,0.00,,---,0.00,0.00,VWS V14.01,2013-02-03 01:36:00,
2013-02-02 20:39:00,22.7,18.0,30.08,NNW,331,0.0,1.0,82,0.00,,---,0.00,0.00,VWS V14.01,2013-02-03 01:39:00,
2013-02-02 20:40:00,22.7,18.0,30.08,NNW,331,0.0,1.0,82,0.00,,---,0.00,0.00,VWS V14.01,2013-02-03 01:40:00,
2013-02-02 20:41:00,22.7,18.0,30.08,NW,311,0.0,1.0,82,0.00,,---,0.00,0.00,VWS V14.01,2013-02-03 01:41:00,
2013-02-02 20:44:00,22.7,18.3,30.08,NW,311,0.0,0.0,83,0.00,,---,0.00,0.00,VWS V14.01,2013-02-03 01:44:00,
2013-02-02 20:46:00,22.7,18.3,30.08,NW,311,0.0,0.0,83,0.00,,---,0.00,0.00,VWS V14.01,2013-02-03 01:46:00,
2013-02-02 20:49:00,22.6,17.9,30.08,NNW,343,0.0,1.0,82,0.00,,---,0.00,0.00,VWS V14.01,2013-02-03 01:49:00,
2013-02-02 20:51:00,22.6,18.2,30.08,West,268,0.0,1.0,83,0.00,,---,0.00,0.00,VWS V14.01,2013-02-03 01:51:00,
2013-02-02 20:54:00,22.7,18.3,30.08,WSW,239,0.0,1.0,83,0.00,,---,0.00,0.00,VWS V14.01,2013-02-03 01:54:00,
2013-02-02 20:56:00,22.7,18.3,30.08,West,269,0.0,1.0,83,0.00,,---,0.00,0.00,VWS V14.01,2013-02-03 01:56:00,
2013-02-02 20:59:00,22.6,18.2,30.08,West,269,0.0,1.0,83,0.00,,---,0.00,0.00,VWS V14.01,2013-02-03 01:59:00,
2013-02-02 21:01:00,22.6,18.2,30.08,West,269,0.0,1.0,83,0.00,,---,0.00,0.00,VWS V14.01,2013-02-03 02:01:00,
2013-02-02 21:04:00,22.5,17.9,30.08,West,269,0.0,1.0,82,0.00,,---,0.00,0.00,VWS V14.01,2013-02-03 02:04:00,
2013-02-02 21:06:00,22.4,17.8,30.08,West,269,0.0,1.0,82,0.00,,---,0.00,0.00,VWS V14.01,2013-02-03 02:06:00,
2013-02-02 21:09:00,22.4,18.0,30.08,West,272,0.0,1.0,83,0.00,,---,0.00,0.00,VWS V14.01,2013-02-03 02:09:00,
2013-02-02 21:11:00,22.4,18.0,30.08,West,271,0.0,1.0,83,0.00,,---,0.00,0.00,VWS V14.01,2013-02-03 02:11:00,
2013-02-02 21:14:00,22.4,18.3,30.08,West,271,0.0,0.0,84,0.00,,---,0.00,0.00,VWS V14.01,2013-02-03 02:14:00,
2013-02-02 21:16:00,22.4,18.3,30.09,WSW,242,1.0,2.0,84,0.00,,---,0.00,0.00,VWS V14.01,2013-02-03 02:16:00,
2013-02-02 21:19:00,22.4,18.3,30.09,WSW,242,0.0,2.0,84,0.00,,---,0.00,0.00,VWS V14.01,2013-02-03 02:19:00,
2013-02-02 21:21:00,22.4,18.3,30.09,WSW,242,0.0,2.0,84,0.00,,---,0.00,0.00,VWS V14.01,2013-02-03 02:21:00,
2013-02-02 21:22:00,22.4,18.3,30.09,WSW,242,0.0,0.0,84,0.00,,---,0.00,0.00,VWS V14.01,2013-02-03 02:22:00,
2013-02-02 21:24:00,22.4,18.3,30.09,WSW,242,0.0,0.0,84,0.00,,---,0.00,0.00,VWS V14.01,2013-02-03 02:24:00,
2013-02-02 21:25:00,22.4,18.3,30.09,WSW,242,0.0,0.0,84,0.00,,---,0.00,0.00,VWS V14.01,2013-02-03 02:25:00,
2013-02-02 21:26:00,22.3,18.5,30.09,WSW,242,0.0,0.0,85,0.00,,---,0.00,0.00,VWS V14.01,2013-02-03 02:26:00,
2013-02-02 21:27:00,22.3,18.5,30.09,WSW,242,0.0,0.0,85,0.00,,---,0.00,0.00,VWS V14.01,2013-02-03 02:27:00,
2013-02-02 21:29:00,22.3,18.2,30.09,WSW,242,0.0,1.0,84,0.00,,---,0.00,0.00,VWS V14.01,2013-02-03 02:29:00,
2013-02-02 21:30:00,22.2,18.1,30.09,WSW,242,0.0,1.0,84,0.00,,---,0.00,0.00,VWS V14.01,2013-02-03 02:30:00,
2013-02-02 21:31:00,22.2,18.4,30.09,WSW,242,0.0,1.0,85,0.00,,---,0.00,0.00,VWS V14.01,2013-02-03 02:31:00,
2013-02-02 21:32:00,22.2,18.4,30.09,West,275,0.0,1.0,85,0.00,,---,0.00,0.00,VWS V14.01,2013-02-03 02:32:00,
2013-02-02 21:34:00,22.2,18.4,30.09,WNW,287,0.0,1.0,85,0.00,,---,0.00,0.00,VWS V14.01,2013-02-03 02:34:00,
2013-02-02 21:35:00,22.2,18.4,30.09,WNW,287,0.0,1.0,85,0.00,,---,0.00,0.00,VWS V14.01,2013-02-03 02:35:00,
2013-02-02 21:37:00,22.2,18.7,30.08,WNW,287,0.0,1.0,86,0.00,,---,0.00,0.00,VWS V14.01,2013-02-03 02:37:00,
2013-02-02 21:39:00,22.2,18.7,30.09,WNW,284,0.0,1.0,86,0.00,,---,0.00,0.00,VWS V14.01,2013-02-03 02:39:00,
2013-02-02 21:40:00,22.2,18.7,30.09,WNW,284,0.0,1.0,86,0.00,,---,0.00,0.00,VWS V14.01,2013-02-03 02:40:00,
2013-02-02 21:42:00,22.2,18.4,30.09,WNW,284,0.0,0.0,85,0.00,,---,0.00,0.00,VWS V14.01,2013-02-03 02:42:00,
2013-02-02 21:45:00,22.2,18.4,30.09,WNW,284,0.0,0.0,85,0.00,,---,0.00,0.00,VWS V14.01,2013-02-03 02:45:00,
2013-02-02 21:47:00,22.1,18.0,30.09,WSW,246,0.0,1.0,84,0.00,,---,0.00,0.00,VWS V14.01,2013-02-03 02:47:00,
2013-02-02 21:50:00,22.1,18.3,30.09,WSW,246,0.0,1.0,85,0.00,,---,0.00,0.00,VWS V14.01,2013-02-03 02:50:00,
2013-02-02 21:52:00,22.2,18.7,30.09,WSW,246,0.0,0.0,86,0.00,,---,0.00,0.00,VWS V14.01,2013-02-03 02:52:00,
2013-02-02 21:55:00,22.2,18.4,30.09,WSW,246,0.0,0.0,85,0.00,,---,0.00,0.00,VWS V14.01,2013-02-03 02:55:00,
2013-02-02 21:57:00,22.1,18.0,30.09,SW,224,0.0,1.0,84,0.00,,---,0.00,0.00,VWS V14.01,2013-02-03 02:57:00,
2013-02-02 22:00:00,22.1,18.3,30.09,SW,224,0.0,1.0,85,0.00,,---,0.00,0.00,VWS V14.01,2013-02-03 03:00:00,
2013-02-02 22:02:00,22.1,18.3,30.09,SW,224,0.0,0.0,85,0.00,,---,0.00,0.00,VWS V14.01,2013-02-03 03:02:00,
2013-02-02 22:03:00,22.1,18.3,30.08,SW,224,0.0,0.0,85,0.00,,---,0.00,0.00,VWS V14.01,2013-02-03 03:03:00,
2013-02-02 22:05:00,22.2,18.4,30.08,SW,224,0.0,0.0,85,0.00,,---,0.00,0.00,VWS V14.01,2013-02-03 03:05:00,
2013-02-02 22:07:00,22.2,18.4,30.08,SW,224,0.0,0.0,85,0.00,,---,0.00,0.00,VWS V14.01,2013-02-03 03:07:00,
2013-02-02 22:08:00,22.2,18.4,30.08,SW,224,0.0,0.0,85,0.00,,---,0.00,0.00,VWS V14.01,2013-02-03 03:08:00,
2013-02-02 22:10:00,22.2,18.4,30.08,NNW,339,0.0,2.0,85,0.00,,---,0.00,0.00,VWS V14.01,2013-02-03 03:10:00,
2013-02-02 22:13:00,22.2,18.4,30.08,WNW,288,0.0,0.0,85,0.00,,---,0.00,0.00,VWS V14.01,2013-02-03 03:13:00,
2013-02-02 22:15:00,22.2,18.4,30.08,WNW,288,0.0,0.0,85,0.00,,---,0.00,0.00,VWS V14.01,2013-02-03 03:15:00,
2013-02-02 22:18:00,22.2,18.4,30.08,WNW,288,0.0,1.0,85,0.00,,---,0.00,0.00,VWS V14.01,2013-02-03 03:18:00,
2013-02-02 22:20:00,22.2,18.1,30.08,WNW,288,0.0,1.0,84,0.00,,---,0.00,0.00,VWS V14.01,2013-02-03 03:20:00,
2013-02-02 22:23:00,22.1,18.0,30.08,SW,235,0.0,2.0,84,0.00,,---,0.00,0.00,VWS V14.01,2013-02-03 03:23:00,
2013-02-02 22:25:00,22.2,18.4,30.08,SW,235,0.0,2.0,85,0.00,,---,0.00,0.00,VWS V14.01,2013-02-03 03:25:00,
2013-02-02 22:28:00,22.1,18.3,30.08,WSW,257,1.0,3.0,85,0.00,,---,0.00,0.00,VWS V14.01,2013-02-03 03:28:00,
2013-02-02 22:30:00,22.1,18.0,30.08,West,259,0.0,3.0,84,0.00,,---,0.00,0.00,VWS V14.01,2013-02-03 03:30:00,
2013-02-02 22:33:00,22.0,18.2,30.08,West,259,0.0,0.0,85,0.00,,---,0.00,0.00,VWS V14.01,2013-02-03 03:33:00,
2013-02-02 22:35:00,22.1,18.6,30.08,West,259,0.0,0.0,86,0.00,,---,0.00,0.00,VWS V14.01,2013-02-03 03:35:00,
2013-02-02 22:36:00,22.1,18.3,30.08,West,259,0.0,0.0,85,0.00,,---,0.00,0.00,VWS V14.01,2013-02-03 03:36:00,
2013-02-02 22:38:00,22.0,18.2,30.08,West,259,0.0,1.0,85,0.00,,---,0.00,0.00,VWS V14.01,2013-02-03 03:38:00,
2013-02-02 22:40:00,22.0,18.2,30.08,West,259,0.0,1.0,85,0.00,,---,0.00,0.00,VWS V14.01,2013-02-03 03:40:00,
2013-02-02 22:41:00,22.0,18.2,30.08,West,259,0.0,1.0,85,0.00,,---,0.00,0.00,VWS V14.01,2013-02-03 03:41:00,
2013-02-02 22:43:00,21.9,18.1,30.08,West,259,0.0,0.0,85,0.00,,---,0.00,0.00,VWS V14.01,2013-02-03 03:43:00,
2013-02-02 22:45:00,22.0,18.5,30.08,West,281,0.0,1.0,86,0.00,,---,0.00,0.00,VWS V14.01,2013-02-03 03:45:00,
2013-02-02 22:46:00,21.9,18.4,30.08,West,281,0.0,1.0,86,0.00,,---,0.00,0.00,VWS V14.01,2013-02-03 03:46:00,
2013-02-02 22:48:00,21.9,18.1,30.08,West,281,0.0,1.0,85,0.00,,---,0.00,0.00,VWS V14.01,2013-02-03 03:48:00,
2013-02-02 22:50:00,21.9,18.4,30.08,West,281,0.0,1.0,86,0.00,,---,0.00,0.00,VWS V14.01,2013-02-03 03:50:00,
2013-02-02 22:51:00,22.0,18.5,30.08,West,281,0.0,1.0,86,0.00,,---,0.00,0.00,VWS V14.01,2013-02-03 03:51:00,
2013-02-02 22:53:00,22.0,18.5,30.08,West,281,0.0,0.0,86,0.00,,---,0.00,0.00,VWS V14.01,2013-02-03 03:53:00,
2013-02-02 22:55:00,22.0,18.5,30.08,West,281,0.0,0.0,86,0.00,,---,0.00,0.00,VWS V14.01,2013-02-03 03:55:00,
2013-02-02 22:56:00,22.0,18.5,30.08,West,281,0.0,0.0,86,0.00,,---,0.00,0.00,VWS V14.01,2013-02-03 03:56:00,
2013-02-02 22:58:00,21.9,18.4,30.08,West,281,0.0,1.0,86,0.00,,---,0.00,0.00,VWS V14.01,2013-02-03 03:58:00,
2013-02-02 23:00:00,21.9,18.6,30.08,West,281,0.0,1.0,87,0.00,,---,0.00,0.00,VWS V14.01,2013-02-03 04:00:00,
2013-02-02 23:01:00,21.9,18.6,30.08,West,281,0.0,1.0,87,0.00,,---,0.00,0.00,VWS V14.01,2013-02-03 04:01:00,
2013-02-02 23:03:00,21.9,18.6,30.08,West,281,0.0,0.0,87,0.00,,---,0.00,0.00,VWS V14.01,2013-02-03 04:03:00,
2013-02-02 23:04:00,21.9,18.6,30.08,West,281,0.0,0.0,87,0.00,,---,0.00,0.00,VWS V14.01,2013-02-03 04:04:00,
2013-02-02 23:05:00,21.9,18.4,30.08,West,281,0.0,0.0,86,0.00,,---,0.00,0.00,VWS V14.01,2013-02-03 04:05:00,
2013-02-02 23:06:00,21.9,18.4,30.08,West,281,0.0,0.0,86,0.00,,---,0.00,0.00,VWS V14.01,2013-02-03 04:06:00,
2013-02-02 23:08:00,22.0,18.7,30.08,West,281,0.0,0.0,87,0.00,,---,0.00,0.00,VWS V14.01,2013-02-03 04:08:00,
2013-02-02 23:09:00,21.9,18.6,30.08,West,281,0.0,0.0,87,0.00,,---,0.00,0.00,VWS V14.01,2013-02-03 04:09:00,
2013-02-02 23:11:00,22.0,18.7,30.08,West,281,0.0,0.0,87,0.00,,---,0.00,0.00,VWS V14.01,2013-02-03 04:11:00,
2013-02-02 23:13:00,21.9,18.4,30.08,West,281,0.0,0.0,86,0.00,,---,0.00,0.00,VWS V14.01,2013-02-03 04:13:00,
2013-02-02 23:14:00,21.9,18.6,30.08,West,281,0.0,0.0,87,0.00,,---,0.00,0.00,VWS V14.01,2013-02-03 04:14:00,
2013-02-02 23:16:00,21.9,18.6,30.08,West,281,0.0,0.0,87,0.00,,---,0.00,0.00,VWS V14.01,2013-02-03 04:16:00,
2013-02-02 23:19:00,22.0,19.0,30.07,West,281,0.0,0.0,88,0.00,,---,0.00,0.00,VWS V14.01,2013-02-03 04:19:00,
2013-02-02 23:21:00,22.0,19.0,30.08,West,281,0.0,0.0,88,0.00,,---,0.00,0.00,VWS V14.01,2013-02-03 04:21:00,
2013-02-02 23:22:00,22.0,19.0,30.07,West,281,0.0,0.0,88,0.00,,---,0.00,0.00,VWS V14.01,2013-02-03 04:22:00,
2013-02-02 23:24:00,22.1,19.1,30.08,West,281,0.0,0.0,88,0.00,,---,0.00,0.00,VWS V14.01,2013-02-03 04:24:00,
2013-02-02 23:26:00,22.0,18.7,30.07,West,281,0.0,0.0,87,0.00,,---,0.00,0.00,VWS V14.01,2013-02-03 04:26:00,
2013-02-02 23:27:00,22.0,18.7,30.07,West,281,0.0,0.0,87,0.00,,---,0.00,0.00,VWS V14.01,2013-02-03 04:27:00,
2013-02-02 23:29:00,22.0,18.7,30.07,West,281,0.0,0.0,87,0.00,,---,0.00,0.00,VWS V14.01,2013-02-03 04:29:00,
2013-02-02 23:31:00,22.0,19.0,30.07,West,281,0.0,0.0,88,0.00,,---,0.00,0.00,VWS V14.01,2013-02-03 04:31:00,
2013-02-02 23:32:00,21.9,18.9,30.07,West,281,0.0,0.0,88,0.00,,---,0.00,0.00,VWS V14.01,2013-02-03 04:32:00,
2013-02-02 23:34:00,21.9,18.9,30.07,West,281,0.0,0.0,88,0.00,,---,0.00,0.00,VWS V14.01,2013-02-03 04:34:00,
2013-02-02 23:36:00,21.9,18.6,30.07,West,281,0.0,0.0,87,0.00,,---,0.00,0.00,VWS V14.01,2013-02-03 04:36:00,
2013-02-02 23:37:00,21.9,18.6,30.07,West,281,0.0,0.0,87,0.00,,---,0.00,0.00,VWS V14.01,2013-02-03 04:37:00,
2013-02-02 23:39:00,21.9,18.6,30.07,West,281,0.0,0.0,87,0.00,,---,0.00,0.00,VWS V14.01,2013-02-03 04:39:00,
2013-02-02 23:41:00,21.9,18.9,30.07,West,281,0.0,0.0,88,0.00,,---,0.00,0.00,VWS V14.01,2013-02-03 04:41:00,
2013-02-02 23:42:00,21.9,18.9,30.07,West,281,0.0,0.0,88,0.00,,---,0.00,0.00,VWS V14.01,2013-02-03 04:42:00,
2013-02-02 23:44:00,21.9,18.9,30.07,West,281,0.0,0.0,88,0.00,,---,0.00,0.00,VWS V14.01,2013-02-03 04:44:00,
2013-02-02 23:46:00,21.9,18.9,30.07,West,281,0.0,0.0,88,0.00,,---,0.00,0.00,VWS V14.01,2013-02-03 04:46:00,
2013-02-02 23:47:00,21.9,18.9,30.07,West,281,0.0,0.0,88,0.00,,---,0.00,0.00,VWS V14.01,2013-02-03 04:47:00,
2013-02-02 23:49:00,21.9,18.9,30.07,West,281,0.0,0.0,88,0.00,,---,0.00,0.00,VWS V14.01,2013-02-03 04:49:00,
2013-02-02 23:51:00,21.8,18.8,30.06,West,281,0.0,0.0,88,0.00,,---,0.00,0.00,VWS V14.01,2013-02-03 04:51:00,
2013-02-02 23:52:00,21.8,18.8,30.06,West,281,0.0,0.0,88,0.00,,---,0.00,0.00,VWS V14.01,2013-02-03 04:52:00,
2013-02-02 23:54:00,21.8,18.8,30.06,West,281,0.0,0.0,88,0.00,,---,0.00,0.00,VWS V14.01,2013-02-03 04:54:00,
2013-02-02 23:55:00,21.8,18.8,30.06,West,281,0.0,0.0,88,0.00,,---,0.00,0.00,VWS V14.01,2013-02-03 04:55:00,
2013-02-02 23:56:00,21.8,18.8,30.06,West,281,0.0,0.0,88,0.00,,---,0.00,0.00,VWS V14.01,2013-02-03 04:56:00,
2013-02-02 23:57:00,21.8,18.8,30.06,West,281,0.0,0.0,88,0.00,,---,0.00,0.00,VWS V14.01,2013-02-03 04:57:00,
2013-02-02 23:59:00,21.8,18.8,30.06,West,281,0.0,0.0,88,0.00,,---,0.00,0.00,VWS V14.01,2013-02-03 04:59:00,